GFSSE_prec_pwat_108.txt.gz
Precipitable_Water
1.02 0.94 0.90 0.97 0.99 1.01 1.04 1.09 1.14 1.19 1.23 1.27 1.27 1.20 1.24 1.34 1.44 1.45 1.38 1.35 1.35 1.37 1.40 1.43 1.47 1.55 1.60 1.61 1.63 1.59 1.60 1.60 1.67 1.71 1.69 1.61 1.60 1.58 1.60 1.66 1.71 1.67 1.67
1.01 0.91 0.86 0.91 0.95 0.99 1.01 1.05 1.11 1.15 1.20 1.25 1.25 1.22 1.25 1.32 1.44 1.49 1.41 1.40 1.44 1.43 1.40 1.41 1.43 1.46 1.46 1.44 1.44 1.47 1.50 1.54 1.58 1.58 1.56 1.58 1.61 1.64 1.65 1.71 1.68 1.63 1.55
0.93 0.84 0.86 0.90 0.93 0.99 1.02 1.06 1.09 1.13 1.16 1.16 1.19 1.22 1.28 1.34 1.41 1.47 1.46 1.43 1.53 1.51 1.61 1.46 1.42 1.36 1.34 1.37 1.38 1.44 1.48 1.49 1.49 1.50 1.52 1.52 1.59 1.72 1.70 1.66 1.62 1.55 1.51
0.82 0.80 0.86 0.90 0.91 0.93 0.95 1.01 1.06 1.11 1.15 1.18 1.22 1.25 1.30 1.38 1.44 1.48 1.47 1.44 1.49 1.53 1.59 1.53 1.50 1.45 1.41 1.39 1.42 1.43 1.43 1.46 1.45 1.48 1.56 1.66 1.70 1.72 1.66 1.61 1.49 1.40 1.38
0.85 0.87 0.85 0.85 0.86 0.90 0.95 1.00 1.05 1.11 1.17 1.21 1.24 1.29 1.33 1.41 1.48 1.49 1.51 1.54 1.56 1.54 1.50 1.53 1.57 1.58 1.47 1.41 1.39 1.38 1.41 1.45 1.48 1.52 1.57 1.78 1.77 1.74 1.64 1.54 1.40 1.29 1.23
0.93 0.95 0.83 0.84 0.85 0.90 0.95 1.01 1.06 1.11 1.17 1.22 1.24 1.30 1.34 1.39 1.43 1.49 1.50 1.58 1.59 1.55 1.50 1.49 1.53 1.58 1.53 1.42 1.37 1.41 1.42 1.47 1.51 1.61 1.72 1.81 1.75 1.71 1.62 1.50 1.35 1.22 1.16
0.97 0.97 0.86 0.86 0.89 0.90 0.95 0.99 1.05 1.11 1.17 1.21 1.24 1.30 1.36 1.39 1.49 1.54 1.53 1.52 1.55 1.57 1.56 1.52 1.55 1.55 1.56 1.47 1.40 1.45 1.48 1.48 1.55 1.61 1.65 1.74 1.71 1.63 1.50 1.45 1.22 1.15 1.13
0.95 0.98 0.91 0.91 0.92 0.92 0.96 0.99 1.03 1.09 1.13 1.16 1.20 1.27 1.39 1.45 1.47 1.52 1.51 1.48 1.53 1.54 1.50 1.48 1.45 1.53 1.57 1.57 1.51 1.46 1.48 1.43 1.50 1.60 1.67 1.57 1.52 1.47 1.38 1.25 1.14 1.12 1.10
1.00 0.98 0.93 0.93 0.94 0.96 0.98 0.99 1.02 1.06 1.09 1.12 1.18 1.25 1.31 1.41 1.43 1.45 1.49 1.48 1.52 1.50 1.46 1.47 1.45 1.62 1.64 1.60 1.62 1.53 1.49 1.43 1.46 1.52 1.63 1.62 1.40 1.32 1.27 1.14 1.07 1.05 1.02
1.05 1.02 0.98 0.96 0.98 0.99 1.01 1.03 1.02 1.03 1.06 1.11 1.16 1.21 1.29 1.34 1.41 1.45 1.47 1.50 1.43 1.41 1.41 1.41 1.44 1.50 1.60 1.56 1.59 1.62 1.51 1.45 1.43 1.48 1.66 1.51 1.34 1.21 1.18 1.04 1.00 1.01 0.96
1.06 1.02 1.07 1.02 1.02 1.05 1.06 1.06 1.07 1.04 1.06 1.10 1.13 1.18 1.23 1.32 1.42 1.45 1.44 1.48 1.41 1.40 1.39 1.44 1.40 1.47 1.52 1.55 1.54 1.62 1.55 1.43 1.45 1.49 1.39 1.33 1.21 1.16 1.11 1.01 0.98 0.96 0.93
0.96 1.01 1.06 1.09 1.07 1.12 1.10 1.10 1.10 1.08 1.06 1.08 1.11 1.14 1.25 1.34 1.40 1.46 1.47 1.49 1.48 1.37 1.36 1.43 1.41 1.46 1.51 1.56 1.57 1.54 1.49 1.53 1.49 1.43 1.27 1.27 1.19 1.13 1.06 0.98 0.97 0.93 0.92
0.98 1.04 1.07 1.12 1.17 1.18 1.12 1.14 1.12 1.10 1.09 1.11 1.09 1.13 1.25 1.31 1.39 1.47 1.51 1.52 1.51 1.44 1.40 1.43 1.43 1.38 1.42 1.51 1.59 1.57 1.51 1.54 1.52 1.38 1.38 1.35 1.20 1.12 1.09 0.98 0.93 0.92 0.88
1.01 1.01 1.08 1.15 1.20 1.19 1.15 1.19 1.18 1.17 1.20 1.14 1.14 1.16 1.22 1.24 1.26 1.39 1.44 1.46 1.46 1.44 1.39 1.38 1.37 1.32 1.37 1.48 1.52 1.54 1.52 1.53 1.52 1.36 1.26 1.22 1.18 1.09 1.08 0.95 0.92 0.88 0.87
1.01 1.06 1.10 1.16 1.15 1.21 1.22 1.20 1.16 1.14 1.21 1.19 1.12 1.12 1.16 1.22 1.22 1.34 1.40 1.39 1.41 1.43 1.40 1.35 1.35 1.32 1.35 1.44 1.56 1.53 1.50 1.54 1.51 1.43 1.28 1.17 1.10 1.06 1.03 0.92 0.91 0.90 0.93
0.89 1.06 1.15 1.15 1.16 1.21 1.17 1.23 1.15 1.13 1.16 1.13 1.08 1.04 1.12 1.20 1.19 1.27 1.28 1.30 1.31 1.32 1.32 1.32 1.33 1.34 1.37 1.45 1.51 1.50 1.54 1.57 1.48 1.37 1.33 1.17 1.07 1.08 1.04 0.91 0.94 0.93 0.94
0.64 0.92 1.17 1.17 1.25 1.18 1.17 1.19 1.15 1.13 1.13 1.09 1.05 1.07 1.11 1.17 1.14 1.23 1.23 1.19 1.23 1.31 1.32 1.35 1.40 1.38 1.39 1.49 1.50 1.50 1.55 1.54 1.47 1.44 1.29 1.10 1.06 1.09 1.02 0.90 0.94 0.97 0.95
0.55 0.65 1.11 1.21 1.21 1.19 1.14 1.15 1.13 1.16 1.14 1.08 1.09 1.07 1.09 1.07 1.09 1.13 1.18 1.19 1.21 1.29 1.34 1.30 1.32 1.34 1.40 1.46 1.43 1.46 1.55 1.52 1.41 1.35 1.21 1.03 1.01 1.07 1.01 0.99 1.03 0.99 0.96
0.50 0.59 1.00 1.17 1.17 1.12 1.12 1.14 1.13 1.14 1.14 1.14 1.11 1.06 1.08 1.01 1.02 1.03 1.11 1.16 1.21 1.29 1.31 1.30 1.27 1.26 1.29 1.39 1.45 1.45 1.55 1.47 1.42 1.29 1.07 1.01 1.04 1.03 0.99 1.02 1.05 1.02 0.98
0.44 0.54 0.96 1.12 1.16 1.13 1.12 1.15 1.13 1.11 1.11 1.15 1.09 1.11 1.05 0.98 0.98 0.99 1.05 1.13 1.21 1.25 1.24 1.26 1.21 1.26 1.27 1.37 1.44 1.44 1.51 1.39 1.33 1.23 1.08 1.08 1.04 0.99 1.00 0.97 1.03 1.03 0.99
0.44 0.50 0.77 1.10 1.14 1.10 1.04 0.99 1.02 0.96 1.04 1.09 1.11 1.12 1.05 1.00 0.94 0.98 1.01 1.09 1.23 1.20 1.24 1.24 1.20 1.21 1.27 1.42 1.45 1.36 1.39 1.37 1.23 1.21 1.17 1.09 1.02 0.95 0.96 0.96 0.97 1.00 1.01
0.47 0.53 0.74 1.09 1.20 1.12 1.10 1.02 1.06 1.07 1.04 1.11 1.13 1.13 1.10 1.03 0.97 0.96 0.99 1.07 1.13 1.14 1.20 1.19 1.16 1.17 1.34 1.48 1.34 1.26 1.09 1.19 1.25 1.21 1.15 1.11 1.00 0.97 0.98 1.03 1.01 1.00 0.99
0.61 0.59 0.64 0.85 1.19 1.17 1.11 1.08 1.08 1.15 1.05 1.03 1.04 1.06 1.07 1.08 0.95 0.93 1.02 1.07 1.12 1.14 1.10 1.13 1.18 1.22 1.27 1.42 1.42 1.24 1.05 0.99 1.12 1.21 1.09 1.01 1.06 0.98 0.98 0.94 1.04 1.05 0.99
0.64 0.67 0.67 0.70 0.90 1.20 1.17 1.02 0.95 0.90 0.80 0.88 0.97 1.07 1.12 1.07 0.92 0.95 1.01 1.05 1.06 1.11 1.07 1.14 1.24 1.27 1.34 1.27 1.37 1.36 1.29 1.21 1.03 1.00 1.17 1.07 1.12 1.08 1.04 1.03 1.00 1.07 1.06
0.64 0.63 0.71 0.75 0.84 1.07 1.07 1.01 0.94 0.98 0.93 0.94 0.98 1.01 1.10 1.10 0.94 0.93 1.01 1.03 1.03 1.07 1.10 1.15 1.26 1.26 1.38 1.33 1.30 1.26 1.22 1.21 1.17 1.03 0.95 1.02 1.05 1.09 1.13 1.14 1.10 1.07 0.99
0.70 0.67 0.64 0.71 0.77 0.90 1.11 0.98 0.97 0.97 0.94 0.89 0.92 0.95 1.06 1.08 0.93 0.90 0.97 1.02 1.02 1.08 1.09 1.15 1.29 1.30 1.28 1.36 1.34 1.30 1.22 1.12 1.07 1.02 0.98 1.01 0.98 1.02 1.09 1.16 1.14 1.16 1.11

GFSSE_prec_pwat_111.txt.gz
Precipitable_Water
1.08 1.05 1.03 0.96 0.96 1.01 1.05 1.06 1.10 1.13 1.16 1.17 1.16 1.10 1.15 1.24 1.33 1.32 1.28 1.29 1.33 1.34 1.36 1.37 1.40 1.47 1.54 1.61 1.61 1.60 1.63 1.64 1.69 1.77 1.78 1.75 1.68 1.67 1.68 1.66 1.68 1.68 1.65
1.03 1.02 1.00 0.90 0.91 0.96 1.01 1.06 1.07 1.12 1.16 1.19 1.16 1.13 1.14 1.22 1.35 1.34 1.33 1.31 1.34 1.36 1.35 1.37 1.42 1.51 1.50 1.47 1.47 1.50 1.52 1.55 1.60 1.63 1.64 1.64 1.62 1.61 1.62 1.62 1.64 1.63 1.58
0.91 0.96 0.96 0.88 0.90 0.94 0.99 1.04 1.07 1.11 1.14 1.15 1.13 1.13 1.17 1.24 1.32 1.37 1.37 1.34 1.37 1.45 1.42 1.40 1.41 1.42 1.44 1.40 1.37 1.40 1.47 1.52 1.54 1.55 1.55 1.56 1.59 1.65 1.68 1.63 1.62 1.58 1.56
0.88 0.90 0.86 0.85 0.89 0.94 0.98 1.01 1.03 1.08 1.11 1.11 1.12 1.16 1.22 1.27 1.32 1.37 1.41 1.37 1.39 1.46 1.49 1.51 1.44 1.36 1.36 1.40 1.44 1.45 1.42 1.42 1.44 1.47 1.50 1.54 1.59 1.66 1.67 1.62 1.57 1.54 1.49
0.81 0.83 0.83 0.81 0.83 0.89 0.94 0.98 1.01 1.05 1.10 1.12 1.15 1.20 1.25 1.31 1.36 1.41 1.41 1.40 1.45 1.46 1.48 1.51 1.48 1.40 1.37 1.41 1.46 1.47 1.46 1.43 1.44 1.47 1.48 1.58 1.70 1.71 1.67 1.61 1.54 1.42 1.37
0.79 0.80 0.80 0.79 0.83 0.88 0.94 0.98 1.03 1.06 1.13 1.16 1.19 1.23 1.28 1.31 1.37 1.41 1.41 1.47 1.51 1.50 1.46 1.48 1.50 1.52 1.47 1.43 1.43 1.45 1.46 1.47 1.49 1.49 1.51 1.66 1.75 1.78 1.71 1.58 1.49 1.35 1.22
0.83 0.78 0.78 0.80 0.82 0.87 0.93 0.98 1.04 1.07 1.12 1.17 1.19 1.23 1.28 1.30 1.39 1.44 1.44 1.49 1.47 1.54 1.50 1.53 1.52 1.49 1.49 1.53 1.49 1.47 1.48 1.50 1.54 1.56 1.63 1.69 1.75 1.75 1.68 1.59 1.48 1.26 1.17
0.82 0.79 0.80 0.82 0.83 0.86 0.92 0.96 1.02 1.07 1.09 1.14 1.17 1.23 1.27 1.32 1.37 1.44 1.44 1.52 1.46 1.46 1.50 1.53 1.53 1.49 1.49 1.58 1.62 1.58 1.54 1.54 1.54 1.61 1.67 1.76 1.82 1.71 1.59 1.44 1.35 1.15 1.11
0.93 0.82 0.79 0.84 0.87 0.86 0.91 0.96 0.99 1.03 1.05 1.07 1.11 1.19 1.26 1.30 1.35 1.40 1.48 1.50 1.47 1.50 1.48 1.50 1.46 1.46 1.49 1.60 1.63 1.59 1.60 1.57 1.50 1.61 1.66 1.66 1.65 1.65 1.49 1.35 1.13 1.05 1.04
0.97 0.87 0.80 0.84 0.88 0.85 0.90 0.95 0.97 1.01 1.04 1.02 1.06 1.14 1.21 1.26 1.32 1.37 1.45 1.48 1.50 1.51 1.42 1.41 1.37 1.40 1.40 1.54 1.58 1.58 1.58 1.60 1.49 1.52 1.58 1.61 1.71 1.52 1.34 1.21 1.03 1.00 1.01
0.99 0.94 0.88 0.83 0.88 0.87 0.87 0.93 0.97 1.01 1.02 1.06 1.07 1.10 1.14 1.21 1.27 1.35 1.42 1.46 1.49 1.52 1.44 1.40 1.36 1.35 1.34 1.41 1.51 1.55 1.57 1.56 1.55 1.50 1.47 1.55 1.67 1.47 1.22 1.11 0.95 0.96 0.96
0.94 0.94 0.94 0.87 0.86 0.89 0.89 0.93 0.96 1.01 1.02 1.04 1.07 1.07 1.09 1.16 1.26 1.31 1.39 1.46 1.46 1.49 1.47 1.40 1.36 1.34 1.32 1.36 1.45 1.52 1.53 1.50 1.53 1.60 1.57 1.51 1.54 1.36 1.18 1.03 0.96 0.94 0.92
1.05 1.06 1.00 0.97 0.93 0.92 0.91 0.94 0.98 1.00 1.01 1.03 1.04 1.04 1.05 1.14 1.24 1.27 1.33 1.41 1.48 1.48 1.47 1.40 1.36 1.35 1.36 1.32 1.39 1.48 1.54 1.54 1.55 1.58 1.58 1.49 1.42 1.34 1.15 1.02 0.92 0.94 0.91
1.08 1.02 1.03 1.06 1.01 1.02 0.98 0.96 0.99 1.00 1.00 1.00 1.01 1.04 1.02 1.06 1.14 1.20 1.27 1.36 1.44 1.46 1.41 1.36 1.34 1.33 1.34 1.31 1.32 1.43 1.48 1.53 1.57 1.59 1.60 1.46 1.43 1.29 1.10 1.04 0.92 0.92 0.90
1.11 1.12 1.10 1.10 1.04 1.05 1.02 1.03 1.03 1.05 1.07 1.10 1.11 1.10 1.08 1.04 1.08 1.15 1.24 1.36 1.41 1.43 1.42 1.33 1.32 1.32 1.30 1.26 1.29 1.37 1.45 1.52 1.56 1.61 1.63 1.47 1.45 1.31 1.14 1.04 0.98 0.96 0.89
1.04 1.17 1.21 1.21 1.16 1.07 1.05 1.04 1.07 1.09 1.13 1.16 1.15 1.14 1.08 1.04 1.06 1.08 1.14 1.25 1.32 1.36 1.37 1.31 1.27 1.25 1.25 1.24 1.26 1.38 1.49 1.53 1.57 1.60 1.60 1.45 1.26 1.21 1.12 1.03 0.94 0.91 0.91
0.74 0.99 1.16 1.27 1.29 1.21 1.06 1.06 1.11 1.15 1.15 1.14 1.14 1.15 1.06 1.08 1.10 1.08 1.08 1.14 1.16 1.26 1.29 1.28 1.26 1.26 1.24 1.31 1.26 1.38 1.49 1.53 1.57 1.58 1.55 1.39 1.32 1.16 1.08 0.99 0.93 0.94 0.92
0.45 0.74 1.03 1.19 1.26 1.27 1.20 1.17 1.09 1.13 1.11 1.09 1.12 1.12 1.03 1.09 1.12 1.06 1.03 1.08 1.16 1.20 1.22 1.21 1.25 1.23 1.25 1.26 1.24 1.41 1.47 1.52 1.59 1.56 1.51 1.38 1.28 1.11 1.04 1.01 0.93 0.93 0.93
0.42 0.50 0.87 1.06 1.16 1.23 1.27 1.25 1.16 1.12 1.12 1.08 1.10 1.08 1.05 1.11 1.12 1.03 0.99 1.05 1.12 1.16 1.18 1.19 1.26 1.25 1.19 1.20 1.24 1.36 1.42 1.48 1.57 1.55 1.46 1.38 1.24 1.02 0.99 0.99 1.00 0.96 0.95
0.45 0.46 0.74 1.00 1.11 1.15 1.26 1.30 1.25 1.14 1.10 1.11 1.09 1.10 1.06 1.06 1.11 1.03 0.97 1.01 1.06 1.07 1.12 1.19 1.21 1.26 1.21 1.19 1.22 1.28 1.37 1.46 1.58 1.50 1.40 1.30 1.17 1.00 1.00 1.02 1.05 0.99 0.99
0.49 0.45 0.70 0.91 1.11 1.21 1.25 1.21 1.13 1.00 1.04 1.05 1.07 1.11 1.06 1.08 1.09 1.03 0.95 0.97 1.02 1.00 1.07 1.19 1.18 1.20 1.19 1.21 1.19 1.25 1.33 1.44 1.51 1.48 1.40 1.28 1.09 1.02 1.03 1.03 1.00 1.00 1.00
0.51 0.49 0.70 0.83 0.98 1.16 1.24 1.24 1.17 1.10 1.07 1.08 1.08 1.11 1.11 1.10 1.09 1.06 0.97 0.93 0.98 0.99 1.07 1.11 1.15 1.12 1.15 1.21 1.10 1.20 1.11 1.24 1.36 1.41 1.39 1.30 1.11 1.06 1.02 0.97 0.95 0.96 0.97
0.56 0.53 0.64 0.81 0.97 1.21 1.31 1.29 1.26 1.22 1.14 1.09 1.02 1.03 1.09 1.12 1.10 1.12 1.01 0.93 0.94 1.03 1.03 1.09 1.12 1.13 1.04 1.15 1.30 1.20 1.09 1.03 1.17 1.32 1.30 1.28 1.20 1.05 1.02 0.99 0.96 0.94 0.94
0.68 0.71 0.84 0.88 1.00 1.18 1.26 1.18 1.11 1.01 0.94 0.95 1.01 1.08 1.10 1.15 1.12 1.18 1.07 0.93 0.96 0.99 1.00 1.06 1.10 1.12 1.12 1.10 1.29 1.41 1.33 1.25 1.06 1.03 1.26 1.27 1.18 1.09 1.03 1.01 0.99 0.95 0.99
0.79 0.83 0.89 1.06 1.21 1.09 1.09 1.01 0.95 0.95 1.01 1.00 1.05 1.09 1.10 1.09 1.15 1.19 1.11 0.93 0.91 0.96 0.98 1.03 1.04 1.10 1.20 1.23 1.26 1.31 1.28 1.24 1.23 1.10 1.02 1.13 1.23 1.16 1.06 1.07 1.09 1.03 1.05
0.81 0.84 0.87 0.87 0.98 1.23 1.20 1.05 0.89 0.91 0.94 0.92 0.97 1.00 1.03 1.05 1.10 1.18 1.14 0.96 0.89 0.93 0.95 1.01 1.06 1.11 1.20 1.27 1.33 1.32 1.26 1.17 1.15 1.12 1.05 1.07 1.06 1.16 1.16 1.16 1.08 1.08 1.13

GFSSE_prec_pwat_114.txt.gz
Precipitable_Water
1.15 1.20 1.14 1.17 1.12 1.04 1.03 1.05 1.05 1.07 1.10 1.08 1.05 1.08 1.11 1.20 1.23 1.24 1.24 1.27 1.29 1.30 1.32 1.32 1.36 1.43 1.50 1.57 1.67 1.66 1.66 1.67 1.71 1.79 1.83 1.81 1.78 1.73 1.73 1.69 1.68 1.66 1.66
1.12 1.14 1.15 1.11 1.05 0.99 1.00 1.04 1.06 1.09 1.12 1.12 1.08 1.10 1.14 1.21 1.25 1.28 1.29 1.28 1.30 1.30 1.30 1.32 1.37 1.46 1.55 1.58 1.60 1.57 1.58 1.56 1.61 1.70 1.74 1.76 1.72 1.69 1.68 1.64 1.63 1.63 1.61
1.01 1.03 1.06 1.04 1.00 0.98 0.98 1.03 1.07 1.11 1.13 1.14 1.11 1.12 1.14 1.19 1.26 1.28 1.31 1.32 1.32 1.31 1.30 1.32 1.40 1.46 1.45 1.45 1.46 1.48 1.53 1.54 1.57 1.59 1.61 1.64 1.65 1.65 1.63 1.62 1.59 1.56 1.56
0.93 1.01 1.00 0.97 0.96 0.98 0.99 1.03 1.07 1.12 1.15 1.15 1.11 1.13 1.17 1.19 1.25 1.29 1.31 1.32 1.34 1.38 1.39 1.40 1.40 1.33 1.32 1.34 1.37 1.44 1.53 1.52 1.52 1.51 1.52 1.59 1.61 1.61 1.62 1.61 1.56 1.56 1.56
0.92 0.98 0.96 0.91 0.91 0.92 0.94 0.98 1.02 1.08 1.11 1.11 1.11 1.14 1.18 1.21 1.27 1.32 1.34 1.34 1.36 1.42 1.46 1.47 1.46 1.35 1.33 1.34 1.39 1.45 1.48 1.51 1.49 1.48 1.46 1.49 1.63 1.62 1.61 1.60 1.56 1.51 1.47
0.87 0.91 0.91 0.87 0.84 0.86 0.89 0.92 0.97 1.02 1.07 1.10 1.13 1.16 1.20 1.24 1.28 1.38 1.39 1.37 1.39 1.42 1.44 1.49 1.48 1.42 1.39 1.38 1.40 1.41 1.46 1.50 1.53 1.49 1.46 1.51 1.60 1.67 1.64 1.56 1.53 1.47 1.42
0.78 0.80 0.83 0.84 0.81 0.84 0.87 0.90 0.93 0.99 1.07 1.11 1.13 1.16 1.21 1.25 1.29 1.38 1.38 1.42 1.45 1.45 1.45 1.47 1.48 1.43 1.44 1.45 1.46 1.47 1.46 1.49 1.53 1.54 1.52 1.55 1.66 1.80 1.70 1.62 1.53 1.41 1.24
0.74 0.81 0.83 0.86 0.83 0.82 0.83 0.89 0.92 0.97 1.04 1.11 1.13 1.16 1.19 1.23 1.30 1.40 1.41 1.43 1.47 1.49 1.45 1.48 1.48 1.46 1.45 1.46 1.48 1.57 1.59 1.53 1.54 1.54 1.65 1.63 1.74 1.87 1.72 1.64 1.51 1.37 1.18
0.79 0.79 0.82 0.86 0.86 0.84 0.83 0.88 0.93 0.95 1.00 1.06 1.12 1.16 1.17 1.19 1.28 1.34 1.40 1.45 1.49 1.47 1.42 1.47 1.47 1.45 1.44 1.45 1.48 1.59 1.63 1.53 1.54 1.55 1.64 1.69 1.69 1.70 1.69 1.54 1.43 1.27 1.14
0.85 0.79 0.79 0.83 0.85 0.87 0.88 0.89 0.94 0.93 0.95 1.00 1.06 1.13 1.16 1.17 1.24 1.30 1.38 1.43 1.43 1.47 1.47 1.46 1.43 1.41 1.39 1.43 1.52 1.64 1.61 1.56 1.51 1.52 1.60 1.67 1.70 1.68 1.64 1.51 1.34 1.14 1.00
0.90 0.83 0.81 0.81 0.83 0.86 0.89 0.93 0.96 0.95 0.93 0.96 1.01 1.06 1.15 1.16 1.19 1.27 1.33 1.41 1.43 1.45 1.48 1.45 1.38 1.33 1.33 1.40 1.42 1.49 1.59 1.59 1.59 1.53 1.54 1.54 1.66 1.75 1.62 1.32 1.21 1.02 0.94
0.89 0.89 0.87 0.84 0.81 0.86 0.90 0.93 0.95 0.96 0.95 0.95 1.00 1.04 1.09 1.14 1.19 1.23 1.29 1.34 1.41 1.43 1.48 1.47 1.43 1.34 1.34 1.35 1.34 1.41 1.47 1.54 1.57 1.54 1.54 1.52 1.58 1.67 1.57 1.28 1.08 0.92 0.93
0.98 0.99 0.92 0.88 0.87 0.85 0.87 0.92 0.93 0.94 0.94 0.95 0.99 1.03 1.06 1.09 1.16 1.20 1.22 1.28 1.33 1.37 1.42 1.46 1.44 1.34 1.30 1.30 1.30 1.33 1.39 1.46 1.53 1.51 1.55 1.57 1.59 1.65 1.54 1.23 1.09 0.88 0.87
0.98 1.01 1.01 0.96 0.90 0.86 0.91 0.90 0.91 0.90 0.92 0.90 0.94 1.02 1.02 1.00 1.05 1.12 1.15 1.20 1.25 1.34 1.38 1.43 1.43 1.35 1.30 1.30 1.33 1.28 1.29 1.33 1.51 1.57 1.59 1.55 1.58 1.58 1.45 1.23 1.05 0.87 0.88
0.89 0.98 1.04 1.03 0.94 0.87 0.89 0.91 0.91 0.90 0.91 0.91 0.93 1.00 1.02 0.97 0.97 1.08 1.12 1.16 1.22 1.29 1.31 1.33 1.35 1.31 1.29 1.29 1.32 1.28 1.26 1.31 1.42 1.55 1.60 1.61 1.59 1.58 1.46 1.24 1.04 0.89 0.87
0.90 1.02 1.19 1.22 1.14 1.02 0.91 0.92 0.91 0.94 0.96 0.95 0.96 0.97 1.02 0.99 0.97 1.02 1.06 1.09 1.16 1.22 1.25 1.27 1.28 1.27 1.28 1.28 1.25 1.25 1.26 1.32 1.40 1.51 1.56 1.64 1.60 1.58 1.45 1.22 1.04 0.92 0.89
0.94 0.98 1.06 1.18 1.33 1.26 1.14 1.00 0.99 1.00 1.03 1.04 1.05 1.06 1.08 1.06 1.01 1.03 1.04 1.05 1.13 1.19 1.18 1.18 1.21 1.23 1.21 1.21 1.18 1.21 1.27 1.33 1.40 1.47 1.56 1.65 1.64 1.51 1.39 1.29 1.08 0.93 0.90
0.77 0.99 1.09 1.17 1.20 1.21 1.22 1.23 1.15 1.04 1.08 1.10 1.10 1.11 1.12 1.12 1.08 1.06 1.03 1.00 1.10 1.15 1.15 1.14 1.12 1.10 1.14 1.18 1.17 1.23 1.26 1.33 1.41 1.49 1.59 1.62 1.60 1.48 1.32 1.21 1.06 0.93 0.90
0.51 0.69 0.89 1.05 1.11 1.16 1.19 1.27 1.26 1.21 1.20 1.13 1.14 1.13 1.13 1.13 1.06 1.08 1.03 1.02 1.06 1.06 1.08 1.10 1.07 1.08 1.10 1.16 1.21 1.24 1.26 1.31 1.39 1.50 1.57 1.59 1.55 1.41 1.29 1.11 1.04 0.96 0.92
0.47 0.52 0.71 0.89 0.96 1.06 1.23 1.27 1.31 1.31 1.29 1.23 1.12 1.11 1.14 1.12 1.09 1.09 1.06 1.04 1.03 1.00 1.02 1.07 1.05 1.11 1.11 1.19 1.20 1.20 1.24 1.30 1.38 1.47 1.55 1.55 1.52 1.40 1.23 1.04 1.04 0.99 0.96
0.51 0.51 0.61 0.73 0.86 1.03 1.12 1.21 1.22 1.16 1.19 1.22 1.15 1.14 1.12 1.12 1.10 1.10 1.07 1.03 1.02 0.93 0.96 1.05 1.06 1.06 1.10 1.19 1.14 1.13 1.19 1.23 1.31 1.42 1.52 1.53 1.46 1.37 1.19 1.02 1.01 1.01 1.01
0.55 0.54 0.61 0.70 0.79 0.91 1.09 1.19 1.29 1.28 1.29 1.25 1.24 1.14 1.12 1.13 1.12 1.09 1.09 1.02 1.00 0.94 0.95 0.99 1.01 1.02 1.08 1.16 1.06 1.07 0.91 1.11 1.27 1.42 1.47 1.47 1.40 1.32 1.15 1.01 1.01 1.05 1.01
0.70 0.69 0.74 0.79 0.78 0.88 1.01 1.23 1.28 1.34 1.43 1.33 1.22 1.10 1.07 1.13 1.13 1.12 1.13 1.11 1.03 0.98 0.91 0.98 1.01 1.02 0.97 1.12 1.17 1.05 0.88 0.88 1.10 1.34 1.38 1.41 1.35 1.29 1.14 1.03 1.04 1.07 1.02
0.76 0.82 0.83 0.97 1.07 1.05 1.02 1.07 1.09 1.09 1.02 1.08 1.10 1.13 1.05 1.11 1.13 1.15 1.14 1.16 1.11 1.02 0.90 0.97 1.05 1.04 1.04 0.98 1.14 1.18 1.15 1.16 1.04 1.03 1.29 1.34 1.35 1.28 1.21 1.05 1.02 0.99 0.96
0.78 0.80 0.84 0.94 1.06 1.26 1.28 1.22 1.01 1.13 1.19 1.14 1.10 1.04 1.08 1.09 1.14 1.15 1.14 1.16 1.16 1.05 0.95 0.96 1.02 1.01 1.06 1.01 1.04 1.09 1.20 1.25 1.28 1.14 1.04 1.17 1.30 1.32 1.27 1.14 1.07 1.02 0.99
0.78 0.79 0.82 0.85 0.93 1.10 1.24 1.34 1.44 1.39 1.26 1.08 1.02 0.99 1.01 1.09 1.10 1.14 1.15 1.15 1.21 1.11 0.97 0.97 1.01 1.03 1.05 1.05 1.09 1.15 1.18 1.18 1.18 1.16 1.12 1.14 1.16 1.25 1.27 1.21 1.14 1.10 1.07

GFSSE_prec_pwat_117.txt.gz
Precipitable_Water
1.00 1.24 1.28 1.23 1.17 1.11 1.08 1.06 1.04 1.03 1.03 1.07 1.08 1.07 1.11 1.15 1.20 1.21 1.25 1.27 1.26 1.27 1.31 1.34 1.36 1.40 1.50 1.57 1.61 1.66 1.70 1.73 1.75 1.81 1.82 1.82 1.81 1.76 1.76 1.74 1.72 1.71 1.71
1.03 1.22 1.21 1.19 1.14 1.08 1.07 1.07 1.06 1.06 1.05 1.06 1.08 1.10 1.13 1.15 1.19 1.21 1.22 1.23 1.26 1.27 1.28 1.31 1.35 1.41 1.49 1.53 1.58 1.60 1.61 1.64 1.67 1.73 1.75 1.78 1.74 1.71 1.70 1.70 1.69 1.65 1.66
1.04 1.14 1.18 1.13 1.10 1.05 1.04 1.06 1.06 1.08 1.08 1.06 1.09 1.12 1.15 1.18 1.20 1.24 1.26 1.27 1.29 1.30 1.27 1.30 1.35 1.41 1.46 1.47 1.47 1.51 1.53 1.55 1.59 1.67 1.71 1.72 1.72 1.68 1.68 1.65 1.63 1.59 1.59
1.04 1.05 1.12 1.12 1.05 1.02 1.00 1.03 1.05 1.07 1.07 1.09 1.11 1.14 1.16 1.20 1.23 1.26 1.30 1.33 1.34 1.35 1.33 1.35 1.36 1.35 1.34 1.32 1.33 1.36 1.43 1.50 1.55 1.59 1.63 1.65 1.65 1.64 1.62 1.61 1.60 1.57 1.54
0.98 1.02 1.04 1.06 1.05 1.01 0.97 0.99 1.03 1.05 1.07 1.07 1.09 1.12 1.18 1.21 1.25 1.29 1.32 1.38 1.39 1.40 1.40 1.43 1.39 1.34 1.31 1.28 1.31 1.36 1.41 1.45 1.49 1.53 1.54 1.56 1.66 1.66 1.62 1.59 1.57 1.57 1.55
0.94 0.98 0.96 0.98 0.99 0.98 0.94 0.96 0.97 0.99 1.02 1.03 1.05 1.10 1.17 1.21 1.25 1.29 1.32 1.36 1.42 1.42 1.43 1.44 1.35 1.33 1.36 1.33 1.33 1.34 1.37 1.44 1.48 1.51 1.51 1.51 1.58 1.66 1.65 1.60 1.54 1.46 1.43
0.87 0.93 0.92 0.88 0.89 0.92 0.89 0.92 0.94 0.96 0.96 1.01 1.03 1.11 1.18 1.22 1.26 1.30 1.32 1.35 1.40 1.41 1.43 1.43 1.40 1.39 1.40 1.39 1.40 1.39 1.38 1.43 1.48 1.52 1.57 1.57 1.60 1.70 1.67 1.59 1.52 1.48 1.43
0.80 0.87 0.90 0.91 0.87 0.89 0.87 0.90 0.92 0.92 0.93 0.99 1.02 1.09 1.17 1.22 1.26 1.30 1.32 1.34 1.37 1.42 1.44 1.43 1.44 1.43 1.43 1.43 1.42 1.44 1.47 1.54 1.52 1.50 1.55 1.59 1.60 1.78 1.76 1.66 1.58 1.49 1.35
0.85 0.85 0.90 0.90 0.91 0.89 0.88 0.90 0.90 0.91 0.93 0.97 1.04 1.06 1.13 1.19 1.25 1.31 1.33 1.34 1.35 1.42 1.44 1.40 1.41 1.44 1.45 1.47 1.43 1.47 1.50 1.62 1.62 1.55 1.57 1.65 1.66 1.66 1.71 1.72 1.60 1.47 1.34
0.85 0.85 0.85 0.89 0.91 0.89 0.91 0.92 0.91 0.91 0.93 0.97 1.02 1.05 1.08 1.14 1.21 1.30 1.32 1.35 1.35 1.39 1.40 1.40 1.41 1.43 1.46 1.47 1.44 1.46 1.50 1.57 1.60 1.56 1.60 1.63 1.70 1.70 1.67 1.65 1.59 1.44 1.27
0.82 0.84 0.86 0.86 0.88 0.88 0.91 0.94 0.95 0.96 0.97 0.98 1.00 1.04 1.06 1.09 1.15 1.25 1.30 1.34 1.35 1.37 1.37 1.38 1.41 1.39 1.41 1.36 1.35 1.43 1.45 1.52 1.57 1.56 1.56 1.62 1.59 1.68 1.68 1.64 1.50 1.35 1.18
0.70 0.78 0.87 0.87 0.87 0.89 0.91 0.95 0.96 0.97 0.99 0.99 1.00 1.01 1.04 1.06 1.10 1.16 1.25 1.32 1.35 1.35 1.36 1.37 1.40 1.40 1.35 1.33 1.34 1.34 1.37 1.42 1.52 1.53 1.59 1.59 1.54 1.61 1.69 1.64 1.46 1.23 1.02
0.74 0.81 0.86 0.88 0.91 0.89 0.90 0.92 0.93 0.95 0.96 0.98 0.99 0.99 1.04 1.05 1.08 1.11 1.17 1.25 1.30 1.33 1.34 1.36 1.38 1.37 1.35 1.31 1.28 1.28 1.28 1.35 1.40 1.51 1.61 1.60 1.56 1.56 1.67 1.57 1.38 1.14 0.95
0.84 0.81 0.87 0.88 0.86 0.89 0.91 0.89 0.91 0.91 0.94 0.94 0.97 1.00 1.01 0.99 0.99 1.02 1.06 1.15 1.24 1.30 1.30 1.34 1.33 1.36 1.35 1.32 1.27 1.26 1.28 1.28 1.29 1.38 1.53 1.61 1.57 1.59 1.65 1.57 1.42 1.18 0.93
0.89 0.90 0.90 0.89 0.85 0.84 0.85 0.89 0.88 0.90 0.91 0.94 0.96 1.00 1.03 0.98 0.92 0.97 1.03 1.10 1.16 1.26 1.28 1.29 1.29 1.32 1.32 1.28 1.27 1.25 1.27 1.27 1.27 1.32 1.45 1.57 1.61 1.62 1.60 1.60 1.43 1.15 0.93
0.92 0.92 0.98 0.99 0.95 0.91 0.87 0.87 0.86 0.90 0.91 0.94 0.97 0.98 1.03 1.01 0.94 0.94 0.99 1.05 1.10 1.16 1.22 1.24 1.22 1.24 1.22 1.23 1.22 1.27 1.25 1.25 1.24 1.29 1.42 1.52 1.59 1.62 1.65 1.59 1.44 1.21 1.01
0.93 0.99 0.99 1.01 1.13 1.08 0.97 0.94 0.91 0.92 0.93 0.90 0.94 0.99 1.02 1.03 0.99 0.96 0.99 1.03 1.07 1.12 1.15 1.16 1.15 1.17 1.17 1.20 1.18 1.22 1.22 1.23 1.23 1.28 1.33 1.45 1.55 1.60 1.66 1.61 1.45 1.26 1.09
1.02 1.03 1.08 1.15 1.17 1.24 1.20 1.18 1.15 1.05 0.95 0.93 0.95 0.99 1.02 1.04 1.04 1.00 1.00 1.01 1.07 1.09 1.10 1.08 1.07 1.07 1.08 1.10 1.09 1.14 1.17 1.20 1.24 1.27 1.33 1.39 1.50 1.59 1.62 1.59 1.41 1.24 1.08
1.00 1.02 1.06 1.12 1.17 1.23 1.27 1.28 1.24 1.23 1.17 1.12 1.05 1.04 1.06 1.08 1.10 1.04 1.02 1.05 1.09 1.08 1.06 1.05 1.05 1.05 1.01 1.04 1.07 1.13 1.17 1.20 1.23 1.27 1.30 1.37 1.50 1.64 1.58 1.55 1.41 1.32 1.11
0.59 0.72 0.78 0.87 0.93 1.02 1.20 1.30 1.36 1.34 1.32 1.27 1.19 1.22 1.16 1.12 1.13 1.09 1.06 1.07 1.10 1.07 1.03 1.02 1.01 1.06 1.03 1.04 1.07 1.09 1.21 1.29 1.28 1.26 1.28 1.36 1.58 1.62 1.57 1.50 1.39 1.22 1.08
0.54 0.58 0.72 0.75 0.82 0.94 1.04 1.04 1.13 1.08 1.30 1.32 1.29 1.33 1.27 1.18 1.17 1.11 1.05 1.08 1.10 1.04 1.00 1.00 0.99 0.98 0.98 1.06 1.05 1.07 1.15 1.23 1.22 1.24 1.28 1.39 1.52 1.56 1.54 1.42 1.33 1.08 1.04
0.66 0.59 0.60 0.75 0.79 0.86 0.93 0.93 1.03 1.05 1.20 1.33 1.40 1.39 1.40 1.27 1.19 1.11 1.07 1.06 1.10 1.08 1.04 0.99 0.97 0.91 0.96 1.07 0.93 0.96 0.85 1.00 1.15 1.24 1.28 1.39 1.46 1.52 1.51 1.44 1.28 1.04 1.02
0.72 0.74 0.73 0.78 0.83 0.90 0.96 0.99 1.06 1.12 1.20 1.30 1.41 1.39 1.38 1.35 1.23 1.14 1.10 1.08 1.11 1.11 1.04 0.99 0.98 0.92 0.88 1.01 1.09 0.94 0.80 0.78 1.01 1.15 1.24 1.34 1.41 1.46 1.48 1.43 1.23 1.03 1.00
0.80 0.83 0.84 0.87 0.93 1.02 1.11 1.09 1.06 0.88 0.89 1.04 1.19 1.29 1.40 1.37 1.28 1.18 1.13 1.11 1.12 1.13 1.09 1.03 1.02 1.00 0.98 0.89 1.04 1.10 1.06 1.03 0.92 0.86 1.13 1.27 1.43 1.39 1.42 1.38 1.19 1.04 1.05
0.83 0.81 0.85 0.91 0.95 1.02 1.13 1.17 1.09 1.08 1.17 1.21 1.16 1.20 1.25 1.31 1.26 1.24 1.19 1.11 1.09 1.13 1.13 1.11 1.03 0.98 1.03 0.94 0.97 1.00 1.02 1.07 1.12 1.03 0.98 1.12 1.33 1.37 1.40 1.36 1.24 1.10 1.08
0.82 0.83 0.86 0.89 0.93 0.98 1.07 1.17 1.15 1.11 1.13 1.20 1.32 1.36 1.28 1.27 1.22 1.24 1.23 1.17 1.11 1.11 1.11 1.14 1.09 1.00 1.00 1.01 1.03 1.03 0.98 0.94 0.98 1.10 1.11 1.12 1.17 1.26 1.35 1.35 1.30 1.17 1.09

GFSSE_prec_pwat_120.txt.gz
Precipitable_Water
0.89 1.15 1.22 1.24 1.18 1.10 1.04 0.99 0.98 0.99 1.01 1.04 1.07 1.10 1.13 1.12 1.17 1.22 1.25 1.30 1.30 1.29 1.32 1.34 1.37 1.40 1.45 1.49 1.52 1.56 1.62 1.69 1.73 1.80 1.85 1.79 1.81 1.76 1.73 1.74 1.73 1.72 1.74
0.96 1.18 1.23 1.23 1.18 1.09 1.04 0.98 0.96 1.00 1.01 1.03 1.07 1.10 1.12 1.15 1.16 1.18 1.23 1.27 1.28 1.29 1.29 1.31 1.34 1.38 1.43 1.49 1.54 1.56 1.60 1.64 1.70 1.76 1.81 1.81 1.79 1.72 1.69 1.70 1.71 1.69 1.68
1.00 1.21 1.23 1.20 1.18 1.13 1.06 1.00 0.99 1.00 1.03 1.03 1.06 1.10 1.12 1.13 1.15 1.19 1.22 1.23 1.26 1.30 1.30 1.28 1.33 1.37 1.41 1.45 1.47 1.46 1.48 1.52 1.57 1.64 1.73 1.74 1.73 1.73 1.71 1.67 1.66 1.65 1.65
1.06 1.18 1.21 1.19 1.17 1.12 1.07 1.03 1.01 1.02 1.03 1.04 1.04 1.09 1.12 1.13 1.16 1.20 1.23 1.27 1.30 1.32 1.34 1.33 1.36 1.38 1.37 1.34 1.33 1.35 1.38 1.43 1.50 1.57 1.63 1.69 1.72 1.73 1.69 1.64 1.62 1.60 1.55
1.08 1.15 1.18 1.18 1.15 1.11 1.05 1.03 1.02 1.02 1.03 1.04 1.06 1.09 1.12 1.15 1.17 1.20 1.26 1.31 1.34 1.33 1.36 1.35 1.38 1.35 1.29 1.27 1.27 1.30 1.35 1.39 1.45 1.49 1.51 1.56 1.66 1.69 1.69 1.64 1.61 1.58 1.55
1.03 1.09 1.13 1.10 1.08 1.06 1.02 1.01 1.03 1.03 1.03 1.05 1.06 1.07 1.12 1.17 1.19 1.21 1.27 1.32 1.37 1.36 1.36 1.35 1.34 1.30 1.29 1.33 1.32 1.32 1.36 1.37 1.41 1.47 1.51 1.52 1.58 1.68 1.70 1.68 1.61 1.57 1.55
0.96 1.02 1.05 1.04 1.05 1.06 1.04 1.02 1.02 1.02 1.01 1.02 1.04 1.06 1.10 1.16 1.19 1.22 1.27 1.33 1.38 1.37 1.36 1.35 1.31 1.31 1.36 1.38 1.37 1.37 1.36 1.37 1.41 1.47 1.52 1.58 1.59 1.72 1.73 1.67 1.60 1.53 1.45
0.91 0.98 1.02 1.03 1.03 1.04 1.02 1.01 0.98 0.98 1.00 1.01 1.02 1.05 1.08 1.13 1.17 1.21 1.26 1.33 1.36 1.36 1.37 1.34 1.32 1.34 1.38 1.40 1.39 1.39 1.41 1.44 1.50 1.52 1.55 1.56 1.59 1.83 1.78 1.64 1.54 1.48 1.45
0.97 0.95 0.98 1.00 1.02 1.02 1.01 1.00 0.95 0.97 0.99 1.00 1.03 1.05 1.07 1.11 1.16 1.20 1.25 1.30 1.33 1.33 1.35 1.34 1.35 1.35 1.40 1.43 1.44 1.42 1.44 1.48 1.48 1.55 1.56 1.61 1.62 1.73 1.80 1.72 1.65 1.55 1.45
0.95 0.94 0.93 0.95 0.96 0.98 1.01 1.01 0.97 0.96 0.97 1.01 1.05 1.06 1.07 1.11 1.15 1.18 1.23 1.27 1.30 1.33 1.33 1.35 1.35 1.35 1.38 1.42 1.45 1.40 1.42 1.48 1.48 1.53 1.57 1.61 1.65 1.61 1.55 1.56 1.62 1.61 1.50
0.89 0.90 0.94 0.92 0.95 0.97 0.99 0.99 0.99 0.99 0.99 1.03 1.07 1.08 1.10 1.10 1.13 1.16 1.21 1.26 1.27 1.31 1.33 1.35 1.34 1.36 1.38 1.39 1.37 1.34 1.39 1.40 1.47 1.53 1.58 1.61 1.63 1.66 1.66 1.65 1.63 1.57 1.45
0.76 0.83 0.88 0.91 0.91 0.96 1.00 0.97 0.96 0.99 1.03 1.03 1.05 1.07 1.10 1.10 1.12 1.15 1.19 1.25 1.28 1.29 1.31 1.34 1.36 1.39 1.38 1.35 1.34 1.33 1.31 1.36 1.42 1.47 1.54 1.63 1.62 1.67 1.62 1.60 1.60 1.50 1.30
0.71 0.79 0.85 0.90 0.93 0.95 0.95 0.99 0.95 0.98 1.00 1.01 1.00 1.05 1.10 1.11 1.13 1.12 1.15 1.19 1.24 1.27 1.29 1.33 1.37 1.39 1.37 1.33 1.32 1.30 1.28 1.28 1.30 1.38 1.39 1.50 1.59 1.69 1.63 1.61 1.56 1.46 1.21
0.70 0.74 0.83 0.91 0.91 0.95 0.96 0.94 0.95 0.91 0.96 0.98 0.97 1.01 1.04 1.07 1.07 1.06 1.05 1.11 1.15 1.21 1.21 1.28 1.33 1.35 1.33 1.33 1.32 1.26 1.22 1.25 1.28 1.30 1.36 1.43 1.55 1.63 1.71 1.67 1.57 1.47 1.24
0.77 0.79 0.86 0.93 0.90 0.93 0.93 0.93 0.93 0.92 0.93 0.98 0.98 0.99 1.01 1.03 1.03 1.04 1.03 1.08 1.11 1.17 1.19 1.22 1.29 1.32 1.29 1.30 1.31 1.25 1.21 1.20 1.26 1.27 1.30 1.35 1.51 1.60 1.67 1.71 1.58 1.50 1.28
0.97 0.89 0.91 0.90 0.92 0.90 0.90 0.90 0.91 0.95 0.96 0.97 0.98 0.99 0.99 1.00 1.02 1.01 1.00 1.02 1.07 1.13 1.16 1.19 1.22 1.24 1.25 1.27 1.25 1.23 1.20 1.22 1.23 1.24 1.24 1.30 1.45 1.58 1.64 1.69 1.64 1.57 1.34
1.12 1.09 0.97 0.94 0.99 0.92 0.88 0.90 0.92 0.92 0.94 0.93 0.97 1.01 1.03 1.00 0.99 1.00 0.99 1.00 1.06 1.13 1.13 1.15 1.17 1.22 1.21 1.23 1.18 1.21 1.19 1.18 1.18 1.20 1.23 1.27 1.37 1.45 1.50 1.60 1.66 1.58 1.40
1.24 1.21 1.17 1.06 1.08 1.04 1.00 1.03 1.04 1.01 0.96 0.94 0.98 1.02 1.05 1.05 1.01 0.99 0.98 1.00 1.09 1.12 1.10 1.08 1.08 1.08 1.10 1.12 1.11 1.15 1.16 1.16 1.15 1.17 1.20 1.23 1.28 1.37 1.46 1.54 1.66 1.62 1.45
1.25 1.28 1.22 1.16 1.12 1.12 1.14 1.14 1.22 1.21 1.15 1.09 1.06 1.03 1.05 1.07 1.06 1.02 1.00 1.01 1.10 1.11 1.09 1.05 1.02 1.02 1.00 1.04 1.08 1.11 1.12 1.11 1.13 1.17 1.20 1.22 1.25 1.32 1.39 1.50 1.61 1.59 1.46
1.07 1.18 1.19 1.16 1.18 1.23 1.29 1.25 1.26 1.25 1.21 1.17 1.14 1.13 1.13 1.14 1.14 1.08 1.05 1.04 1.08 1.09 1.07 1.05 0.99 1.02 1.02 1.04 1.06 1.05 1.10 1.13 1.15 1.18 1.24 1.27 1.26 1.29 1.34 1.54 1.63 1.55 1.45
0.57 0.77 1.05 1.19 1.15 1.16 1.17 1.12 1.10 1.06 1.16 1.22 1.20 1.21 1.16 1.16 1.22 1.15 1.10 1.09 1.09 1.06 1.06 1.07 1.04 0.97 0.97 1.05 0.99 1.01 1.07 1.15 1.13 1.20 1.25 1.25 1.27 1.29 1.38 1.57 1.54 1.53 1.44
0.65 0.64 0.63 0.91 1.04 1.06 1.06 1.02 1.05 1.04 1.12 1.20 1.29 1.35 1.34 1.28 1.33 1.23 1.13 1.10 1.08 1.09 1.09 1.08 1.02 0.94 0.95 1.02 0.93 0.90 0.76 0.91 1.00 1.14 1.18 1.23 1.24 1.30 1.42 1.57 1.54 1.52 1.39
0.69 0.70 0.68 0.68 0.83 0.98 1.05 1.10 1.13 1.14 1.12 1.12 1.16 1.27 1.32 1.42 1.41 1.33 1.23 1.17 1.11 1.11 1.08 1.09 1.04 1.00 0.85 0.95 0.92 0.87 0.74 0.66 0.83 1.02 1.08 1.18 1.24 1.29 1.40 1.50 1.53 1.47 1.35
0.76 0.80 0.82 0.81 0.81 0.98 1.10 1.06 1.03 0.98 0.90 0.97 1.04 1.18 1.37 1.48 1.36 1.38 1.36 1.30 1.18 1.15 1.10 1.10 1.11 1.02 0.99 0.86 0.96 1.01 0.98 0.93 0.77 0.74 1.04 1.16 1.24 1.25 1.34 1.46 1.49 1.46 1.39
0.82 0.85 0.88 0.92 0.93 0.98 1.09 1.16 1.05 1.00 1.04 1.05 1.08 1.12 1.29 1.37 1.44 1.49 1.47 1.38 1.24 1.20 1.15 1.12 1.11 1.08 1.01 0.96 0.94 0.88 0.96 0.98 1.00 0.87 0.79 0.96 1.18 1.26 1.36 1.42 1.51 1.45 1.40
0.89 0.90 0.92 0.94 0.95 1.02 1.06 1.10 1.10 1.07 1.08 1.07 1.05 1.06 1.17 1.31 1.33 1.41 1.42 1.38 1.30 1.25 1.21 1.17 1.18 1.12 1.07 1.03 1.04 0.97 0.90 0.87 0.89 0.92 0.87 0.93 1.04 1.24 1.34 1.41 1.44 1.43 1.37

GFSSE_prec_pwat_123.txt.gz
Precipitable_Water
0.83 1.03 1.19 1.26 1.23 1.15 1.12 1.06 1.03 1.03 1.07 1.12 1.11 1.10 1.12 1.13 1.15 1.17 1.22 1.29 1.27 1.26 1.30 1.31 1.36 1.38 1.40 1.44 1.47 1.52 1.57 1.64 1.69 1.75 1.82 1.83 1.84 1.79 1.76 1.73 1.74 1.73 1.71
0.90 1.07 1.20 1.26 1.22 1.17 1.12 1.05 1.00 1.00 1.01 1.04 1.06 1.09 1.11 1.12 1.15 1.17 1.18 1.23 1.25 1.28 1.29 1.31 1.33 1.36 1.40 1.44 1.48 1.53 1.57 1.62 1.69 1.74 1.80 1.82 1.75 1.75 1.71 1.70 1.70 1.70 1.72
0.93 1.07 1.23 1.25 1.22 1.19 1.14 1.07 1.03 1.04 1.01 1.04 1.06 1.08 1.10 1.14 1.16 1.14 1.15 1.19 1.25 1.28 1.31 1.28 1.31 1.36 1.39 1.45 1.49 1.48 1.48 1.51 1.57 1.65 1.70 1.72 1.74 1.73 1.72 1.68 1.70 1.70 1.68
0.98 1.09 1.23 1.22 1.21 1.20 1.15 1.08 1.05 1.05 1.03 1.03 1.07 1.09 1.12 1.13 1.13 1.16 1.13 1.17 1.22 1.27 1.29 1.29 1.30 1.34 1.37 1.39 1.39 1.39 1.40 1.42 1.47 1.53 1.60 1.64 1.66 1.72 1.72 1.75 1.71 1.69 1.63
1.09 1.15 1.19 1.17 1.21 1.17 1.12 1.08 1.06 1.04 1.06 1.05 1.07 1.12 1.12 1.11 1.13 1.15 1.15 1.18 1.24 1.27 1.28 1.30 1.33 1.36 1.31 1.29 1.29 1.31 1.33 1.37 1.42 1.47 1.51 1.57 1.63 1.69 1.74 1.69 1.71 1.64 1.59
1.15 1.20 1.15 1.13 1.13 1.13 1.13 1.12 1.08 1.05 1.04 1.06 1.07 1.11 1.13 1.11 1.13 1.13 1.17 1.21 1.27 1.30 1.30 1.32 1.32 1.29 1.27 1.27 1.32 1.34 1.35 1.37 1.40 1.43 1.48 1.51 1.60 1.63 1.69 1.68 1.67 1.61 1.55
1.16 1.17 1.14 1.12 1.12 1.12 1.12 1.12 1.10 1.07 1.06 1.06 1.07 1.09 1.12 1.12 1.12 1.13 1.17 1.25 1.29 1.31 1.33 1.31 1.30 1.28 1.28 1.33 1.35 1.35 1.38 1.37 1.39 1.42 1.49 1.53 1.57 1.62 1.74 1.75 1.71 1.64 1.56
1.11 1.11 1.13 1.14 1.14 1.14 1.13 1.11 1.11 1.08 1.07 1.06 1.07 1.09 1.12 1.14 1.14 1.16 1.19 1.27 1.31 1.33 1.31 1.28 1.27 1.27 1.29 1.33 1.37 1.39 1.39 1.42 1.44 1.46 1.51 1.58 1.62 1.69 1.82 1.74 1.68 1.59 1.49
1.12 1.08 1.12 1.17 1.16 1.15 1.13 1.11 1.09 1.07 1.05 1.05 1.06 1.08 1.11 1.16 1.17 1.19 1.22 1.28 1.34 1.33 1.30 1.26 1.27 1.29 1.29 1.33 1.37 1.40 1.43 1.42 1.42 1.43 1.46 1.59 1.63 1.70 1.62 1.70 1.64 1.57 1.48
1.09 1.07 1.07 1.13 1.16 1.15 1.14 1.11 1.10 1.08 1.06 1.04 1.04 1.07 1.11 1.16 1.21 1.21 1.24 1.28 1.32 1.30 1.29 1.27 1.27 1.30 1.31 1.33 1.36 1.40 1.38 1.41 1.46 1.45 1.53 1.62 1.61 1.66 1.64 1.57 1.59 1.63 1.56
1.01 1.04 1.07 1.04 1.07 1.09 1.10 1.10 1.10 1.11 1.11 1.06 1.05 1.08 1.13 1.18 1.23 1.24 1.25 1.27 1.29 1.30 1.28 1.28 1.28 1.30 1.31 1.36 1.37 1.35 1.33 1.40 1.43 1.45 1.51 1.56 1.57 1.57 1.62 1.52 1.57 1.58 1.53
0.88 0.94 1.01 1.01 1.01 1.03 1.05 1.09 1.13 1.14 1.15 1.11 1.09 1.09 1.14 1.18 1.21 1.23 1.26 1.27 1.29 1.28 1.28 1.29 1.29 1.31 1.35 1.37 1.38 1.36 1.33 1.34 1.38 1.41 1.48 1.54 1.56 1.64 1.60 1.54 1.52 1.54 1.46
0.99 1.02 1.01 0.99 1.01 0.98 0.99 1.08 1.10 1.12 1.11 1.12 1.12 1.12 1.13 1.15 1.19 1.21 1.24 1.27 1.30 1.29 1.27 1.30 1.30 1.31 1.31 1.33 1.36 1.36 1.33 1.29 1.31 1.35 1.40 1.41 1.49 1.56 1.69 1.65 1.64 1.58 1.49
0.94 0.93 1.03 1.07 1.01 1.00 1.02 1.05 1.07 1.04 1.06 1.06 1.08 1.10 1.10 1.09 1.11 1.13 1.14 1.20 1.24 1.26 1.22 1.25 1.26 1.28 1.30 1.29 1.32 1.34 1.32 1.28 1.27 1.30 1.34 1.34 1.38 1.51 1.68 1.66 1.70 1.59 1.49
1.01 0.91 0.98 1.04 1.01 0.99 0.99 0.99 1.04 0.98 1.01 1.07 1.08 1.11 1.11 1.06 1.04 1.09 1.09 1.13 1.17 1.24 1.21 1.19 1.22 1.24 1.26 1.23 1.25 1.27 1.28 1.26 1.26 1.27 1.32 1.31 1.33 1.37 1.57 1.74 1.73 1.65 1.52
1.02 0.95 0.98 1.01 1.04 1.05 1.00 0.95 0.96 1.00 0.99 1.04 1.06 1.07 1.11 1.08 1.04 1.05 1.04 1.04 1.11 1.19 1.22 1.21 1.18 1.20 1.22 1.22 1.18 1.20 1.25 1.26 1.23 1.26 1.29 1.30 1.29 1.31 1.46 1.67 1.74 1.62 1.58
0.86 1.06 0.95 0.98 1.07 1.02 1.00 0.98 0.94 0.98 0.98 0.96 1.00 1.07 1.09 1.09 1.05 1.04 1.03 1.01 1.05 1.16 1.20 1.21 1.20 1.21 1.19 1.19 1.15 1.16 1.25 1.25 1.22 1.19 1.23 1.29 1.29 1.28 1.35 1.47 1.65 1.64 1.64
0.74 1.02 1.10 1.05 1.01 1.02 0.99 1.03 1.00 0.99 1.02 0.97 0.98 1.04 1.08 1.09 1.08 1.05 1.03 1.02 1.06 1.10 1.15 1.14 1.14 1.13 1.13 1.12 1.12 1.14 1.17 1.22 1.22 1.20 1.18 1.21 1.27 1.28 1.31 1.35 1.43 1.55 1.66
0.72 0.90 1.10 1.19 1.08 1.01 1.05 1.06 1.10 1.10 1.08 1.06 1.02 1.03 1.06 1.09 1.09 1.07 1.05 1.06 1.08 1.06 1.09 1.11 1.11 1.10 1.06 1.07 1.08 1.11 1.12 1.15 1.16 1.17 1.13 1.18 1.23 1.26 1.26 1.33 1.37 1.45 1.59
0.60 0.85 1.05 1.23 1.29 1.22 1.12 1.16 1.20 1.18 1.19 1.23 1.16 1.08 1.10 1.11 1.11 1.12 1.10 1.07 1.10 1.04 1.04 1.08 1.07 1.09 1.07 1.06 1.04 1.04 1.10 1.15 1.18 1.17 1.14 1.20 1.26 1.31 1.32 1.30 1.33 1.42 1.58
0.59 0.74 1.05 1.25 1.40 1.39 1.22 1.17 1.15 1.09 1.17 1.21 1.23 1.24 1.21 1.21 1.20 1.20 1.17 1.14 1.09 1.03 1.02 1.05 1.06 1.03 1.04 1.09 1.01 0.97 1.00 1.07 1.09 1.14 1.20 1.19 1.22 1.29 1.33 1.31 1.31 1.37 1.51
0.63 0.67 0.94 1.14 1.42 1.39 1.30 1.28 1.32 1.30 1.27 1.27 1.28 1.26 1.23 1.22 1.20 1.18 1.16 1.16 1.10 1.05 1.04 1.04 1.03 0.99 1.05 1.05 0.93 0.87 0.69 0.79 0.95 1.03 1.08 1.13 1.15 1.25 1.27 1.31 1.31 1.42 1.50
0.67 0.69 0.73 0.89 1.23 1.37 1.36 1.38 1.34 1.28 1.23 1.15 1.19 1.22 1.25 1.27 1.25 1.25 1.24 1.27 1.15 1.10 1.04 1.05 1.07 1.08 0.98 0.97 1.05 0.91 0.70 0.62 0.75 0.90 0.98 1.03 1.11 1.17 1.25 1.27 1.33 1.40 1.53
0.70 0.75 0.76 0.72 0.73 0.99 1.19 1.14 1.06 0.95 0.89 1.00 1.02 1.14 1.24 1.30 1.31 1.36 1.35 1.36 1.31 1.26 1.16 1.12 1.15 1.16 1.08 0.92 1.03 1.02 1.00 0.88 0.69 0.64 0.90 0.98 1.08 1.14 1.22 1.27 1.32 1.35 1.47
0.76 0.81 0.81 0.82 0.79 0.80 0.90 1.06 1.06 1.02 1.04 1.09 1.08 1.08 1.14 1.24 1.35 1.40 1.46 1.47 1.44 1.42 1.34 1.22 1.15 1.12 1.10 1.02 0.95 0.94 0.96 0.97 0.94 0.75 0.68 0.84 1.01 1.10 1.18 1.27 1.30 1.38 1.51
0.78 0.88 0.86 0.82 0.81 0.85 0.90 0.96 1.06 1.13 1.12 1.09 1.09 1.05 1.06 1.13 1.23 1.32 1.48 1.47 1.50 1.55 1.50 1.39 1.30 1.19 1.12 1.08 1.03 0.99 0.93 0.90 0.84 0.82 0.74 0.83 0.87 1.00 1.13 1.26 1.34 1.41 1.51

GFSSE_prec_pwat_126.txt.gz
Precipitable_Water
0.87 1.02 1.12 1.24 1.21 1.15 1.20 1.23 1.19 1.19 1.20 1.19 1.17 1.15 1.15 1.12 1.15 1.20 1.22 1.25 1.23 1.25 1.29 1.29 1.32 1.36 1.41 1.43 1.44 1.49 1.55 1.57 1.62 1.69 1.72 1.76 1.79 1.76 1.67 1.75 1.80 1.74 1.73
0.97 1.07 1.10 1.20 1.18 1.14 1.20 1.24 1.20 1.20 1.20 1.20 1.18 1.14 1.14 1.12 1.14 1.17 1.22 1.25 1.19 1.22 1.25 1.26 1.32 1.33 1.38 1.43 1.46 1.49 1.55 1.59 1.63 1.69 1.75 1.79 1.75 1.77 1.72 1.66 1.75 1.72 1.70
1.03 1.10 1.12 1.18 1.16 1.12 1.18 1.20 1.18 1.19 1.19 1.17 1.16 1.16 1.15 1.13 1.14 1.17 1.18 1.21 1.19 1.22 1.23 1.26 1.30 1.34 1.40 1.43 1.48 1.51 1.55 1.56 1.57 1.63 1.65 1.66 1.68 1.69 1.66 1.66 1.75 1.72 1.70
1.13 1.13 1.17 1.23 1.17 1.13 1.15 1.13 1.11 1.11 1.14 1.14 1.15 1.15 1.15 1.16 1.17 1.16 1.15 1.15 1.20 1.22 1.24 1.27 1.27 1.32 1.37 1.41 1.43 1.43 1.45 1.47 1.48 1.51 1.56 1.70 1.76 1.66 1.68 1.70 1.75 1.73 1.77
1.19 1.19 1.24 1.27 1.17 1.10 1.08 1.10 1.12 1.12 1.14 1.15 1.14 1.14 1.16 1.18 1.18 1.15 1.13 1.16 1.19 1.22 1.24 1.27 1.29 1.36 1.35 1.35 1.34 1.33 1.35 1.39 1.41 1.45 1.56 1.63 1.69 1.65 1.67 1.68 1.71 1.73 1.73
1.22 1.27 1.33 1.26 1.18 1.09 1.07 1.08 1.11 1.14 1.15 1.14 1.13 1.14 1.17 1.19 1.18 1.17 1.13 1.17 1.20 1.24 1.26 1.30 1.31 1.32 1.28 1.26 1.27 1.30 1.33 1.38 1.40 1.54 1.48 1.55 1.60 1.69 1.70 1.67 1.70 1.71 1.70
1.20 1.31 1.33 1.25 1.15 1.10 1.11 1.09 1.09 1.13 1.16 1.15 1.14 1.16 1.16 1.18 1.19 1.18 1.16 1.18 1.22 1.24 1.26 1.29 1.30 1.27 1.25 1.27 1.31 1.33 1.34 1.36 1.45 1.48 1.52 1.55 1.65 1.66 1.69 1.73 1.73 1.68 1.65
1.29 1.35 1.30 1.22 1.18 1.15 1.14 1.13 1.11 1.09 1.15 1.17 1.15 1.14 1.15 1.16 1.18 1.20 1.19 1.22 1.25 1.25 1.27 1.27 1.26 1.27 1.26 1.28 1.32 1.34 1.34 1.36 1.40 1.49 1.54 1.57 1.62 1.67 1.71 1.76 1.75 1.72 1.64
1.38 1.31 1.28 1.23 1.22 1.19 1.16 1.14 1.12 1.11 1.12 1.14 1.15 1.14 1.15 1.16 1.18 1.21 1.22 1.26 1.28 1.29 1.26 1.26 1.23 1.26 1.29 1.29 1.32 1.34 1.36 1.39 1.45 1.52 1.54 1.57 1.54 1.60 1.65 1.61 1.69 1.68 1.57
1.41 1.30 1.28 1.26 1.25 1.22 1.22 1.20 1.15 1.13 1.14 1.15 1.17 1.17 1.17 1.19 1.22 1.23 1.26 1.30 1.32 1.31 1.27 1.23 1.25 1.27 1.30 1.31 1.32 1.34 1.37 1.37 1.42 1.47 1.54 1.63 1.54 1.52 1.52 1.51 1.54 1.56 1.53
1.38 1.32 1.34 1.28 1.26 1.26 1.25 1.25 1.20 1.17 1.15 1.17 1.19 1.20 1.22 1.24 1.26 1.28 1.27 1.31 1.39 1.35 1.27 1.27 1.28 1.30 1.31 1.33 1.35 1.33 1.32 1.33 1.42 1.42 1.52 1.57 1.49 1.53 1.52 1.50 1.57 1.57 1.56
1.31 1.30 1.31 1.28 1.24 1.26 1.25 1.25 1.23 1.23 1.20 1.19 1.20 1.21 1.24 1.27 1.29 1.29 1.30 1.31 1.33 1.36 1.33 1.27 1.30 1.31 1.32 1.37 1.38 1.34 1.31 1.34 1.34 1.40 1.47 1.53 1.48 1.53 1.56 1.62 1.58 1.55 1.56
1.25 1.34 1.29 1.30 1.26 1.19 1.14 1.18 1.21 1.22 1.21 1.23 1.21 1.21 1.25 1.29 1.32 1.30 1.31 1.28 1.29 1.29 1.29 1.29 1.29 1.31 1.32 1.37 1.39 1.38 1.36 1.34 1.30 1.33 1.43 1.40 1.41 1.42 1.57 1.57 1.63 1.63 1.56
0.90 1.30 1.28 1.28 1.25 1.20 1.16 1.11 1.15 1.19 1.18 1.16 1.19 1.21 1.23 1.24 1.26 1.25 1.27 1.24 1.27 1.26 1.25 1.26 1.28 1.31 1.34 1.36 1.36 1.37 1.38 1.33 1.28 1.29 1.38 1.33 1.34 1.38 1.46 1.57 1.63 1.61 1.66
0.61 1.11 1.24 1.26 1.22 1.19 1.13 1.10 1.08 1.16 1.17 1.12 1.12 1.19 1.21 1.18 1.20 1.24 1.26 1.25 1.25 1.26 1.24 1.23 1.25 1.29 1.27 1.30 1.31 1.32 1.32 1.33 1.32 1.29 1.31 1.37 1.36 1.32 1.36 1.45 1.62 1.69 1.64
0.54 0.91 1.25 1.25 1.21 1.18 1.09 1.07 1.06 1.08 1.12 1.13 1.08 1.09 1.14 1.17 1.19 1.20 1.22 1.23 1.23 1.23 1.25 1.21 1.19 1.21 1.23 1.26 1.24 1.26 1.24 1.26 1.29 1.28 1.26 1.34 1.33 1.30 1.31 1.32 1.54 1.69 1.63
0.47 0.68 1.07 1.27 1.26 1.13 1.06 1.07 1.07 1.05 1.06 1.03 1.09 1.12 1.12 1.13 1.15 1.16 1.19 1.22 1.19 1.24 1.23 1.21 1.20 1.20 1.21 1.25 1.20 1.23 1.21 1.20 1.20 1.28 1.25 1.25 1.29 1.28 1.26 1.33 1.36 1.56 1.58
0.45 0.52 0.71 1.22 1.25 1.15 1.09 1.06 1.06 1.05 1.02 1.05 1.07 1.12 1.16 1.15 1.15 1.11 1.13 1.16 1.20 1.20 1.22 1.17 1.13 1.09 1.11 1.16 1.17 1.19 1.18 1.16 1.18 1.22 1.24 1.22 1.21 1.26 1.31 1.31 1.37 1.40 1.49
0.37 0.50 0.61 1.04 1.21 1.20 1.12 1.10 1.08 1.07 1.05 1.04 1.06 1.07 1.11 1.18 1.17 1.09 1.09 1.13 1.20 1.14 1.14 1.15 1.11 1.09 1.06 1.08 1.12 1.17 1.20 1.18 1.15 1.16 1.17 1.17 1.18 1.16 1.22 1.32 1.30 1.35 1.35
0.41 0.51 0.57 0.89 1.21 1.23 1.22 1.13 1.11 1.07 1.05 1.05 1.04 1.04 1.08 1.13 1.17 1.13 1.10 1.11 1.16 1.15 1.09 1.10 1.06 1.10 1.09 1.06 1.06 1.07 1.14 1.14 1.15 1.15 1.17 1.19 1.19 1.19 1.24 1.27 1.36 1.34 1.33
0.44 0.48 0.54 0.78 1.16 1.26 1.24 1.11 1.01 0.99 1.03 1.05 1.10 1.12 1.12 1.12 1.15 1.15 1.13 1.11 1.12 1.12 1.09 1.07 1.06 1.05 1.05 1.11 1.03 1.01 1.05 1.09 1.07 1.07 1.11 1.10 1.13 1.21 1.21 1.23 1.31 1.35 1.36
0.47 0.47 0.58 0.77 1.03 1.29 1.33 1.19 1.05 1.04 1.10 1.16 1.23 1.25 1.27 1.27 1.22 1.22 1.20 1.19 1.18 1.17 1.19 1.10 1.06 1.02 1.07 1.13 0.94 0.93 0.79 0.89 0.98 1.00 1.05 1.02 1.06 1.11 1.15 1.18 1.24 1.28 1.33
0.48 0.50 0.55 0.76 1.12 1.30 1.44 1.37 1.27 1.23 1.23 1.20 1.20 1.25 1.29 1.34 1.35 1.32 1.28 1.29 1.25 1.23 1.18 1.14 1.09 1.03 0.96 1.10 1.15 0.93 0.77 0.69 0.83 0.98 0.96 1.01 1.00 1.09 1.10 1.16 1.20 1.26 1.32
0.49 0.57 0.62 0.76 0.95 1.30 1.47 1.48 1.44 1.22 1.12 1.20 1.31 1.32 1.29 1.31 1.32 1.37 1.35 1.36 1.34 1.31 1.25 1.23 1.20 1.14 1.11 1.00 1.17 1.14 1.00 0.95 0.78 0.74 0.98 0.93 0.99 1.03 1.10 1.14 1.17 1.25 1.31
0.59 0.65 0.69 0.75 0.89 1.11 1.45 1.49 1.58 1.46 1.37 1.33 1.29 1.18 1.17 1.19 1.32 1.37 1.39 1.37 1.37 1.36 1.38 1.36 1.29 1.24 1.21 1.16 1.12 1.08 1.02 1.01 0.98 0.82 0.74 0.88 0.95 1.01 1.10 1.14 1.18 1.23 1.28
0.71 0.73 0.74 0.77 0.80 0.93 1.23 1.32 1.26 1.41 1.37 1.22 1.13 1.06 1.09 1.12 1.16 1.25 1.36 1.37 1.39 1.41 1.44 1.46 1.46 1.42 1.35 1.30 1.27 1.16 1.05 0.97 0.89 0.86 0.81 0.81 0.83 0.90 1.05 1.13 1.18 1.20 1.27

GFSSE_prec_pwat_129.txt.gz
Precipitable_Water
0.98 1.21 1.08 1.12 1.19 1.19 1.12 1.16 1.15 1.16 1.20 1.20 1.19 1.17 1.18 1.15 1.16 1.14 1.19 1.20 1.24 1.28 1.25 1.25 1.27 1.34 1.39 1.44 1.45 1.45 1.51 1.55 1.60 1.68 1.68 1.70 1.70 1.67 1.64 1.68 1.77 1.83 1.78
1.09 1.24 1.10 1.14 1.23 1.19 1.15 1.18 1.18 1.18 1.21 1.19 1.18 1.17 1.16 1.16 1.20 1.16 1.21 1.25 1.23 1.26 1.26 1.23 1.28 1.35 1.40 1.43 1.41 1.48 1.51 1.57 1.63 1.67 1.71 1.73 1.69 1.67 1.66 1.73 1.82 1.75 1.74
1.10 1.28 1.13 1.15 1.24 1.19 1.18 1.19 1.20 1.22 1.22 1.21 1.19 1.17 1.17 1.17 1.18 1.21 1.20 1.21 1.20 1.24 1.25 1.25 1.26 1.30 1.37 1.41 1.43 1.47 1.52 1.56 1.60 1.65 1.65 1.72 1.67 1.66 1.69 1.72 1.75 1.70 1.71
1.16 1.32 1.19 1.17 1.24 1.20 1.18 1.16 1.18 1.24 1.25 1.24 1.22 1.18 1.18 1.18 1.19 1.21 1.21 1.18 1.17 1.23 1.25 1.29 1.26 1.29 1.35 1.40 1.43 1.46 1.48 1.48 1.50 1.50 1.54 1.67 1.71 1.73 1.71 1.67 1.68 1.72 1.72
1.21 1.36 1.22 1.18 1.24 1.19 1.16 1.12 1.14 1.21 1.23 1.24 1.22 1.21 1.21 1.20 1.19 1.19 1.19 1.19 1.18 1.22 1.25 1.31 1.29 1.32 1.35 1.36 1.36 1.35 1.36 1.37 1.38 1.43 1.88 1.73 1.78 1.71 1.70 1.69 1.69 1.69 1.72
1.31 1.41 1.32 1.23 1.24 1.20 1.13 1.10 1.09 1.13 1.17 1.20 1.21 1.23 1.23 1.22 1.19 1.17 1.17 1.19 1.22 1.23 1.27 1.28 1.30 1.32 1.33 1.29 1.27 1.30 1.29 1.32 1.35 1.51 1.53 1.60 1.67 1.72 1.72 1.73 1.74 1.69 1.73
1.35 1.46 1.41 1.31 1.25 1.19 1.14 1.13 1.10 1.13 1.16 1.18 1.23 1.25 1.24 1.23 1.19 1.17 1.16 1.22 1.24 1.27 1.29 1.31 1.28 1.31 1.26 1.26 1.27 1.31 1.32 1.32 1.41 1.51 1.52 1.61 1.67 1.67 1.68 1.73 1.73 1.77 1.75
1.37 1.47 1.51 1.38 1.30 1.19 1.16 1.15 1.12 1.14 1.17 1.20 1.23 1.26 1.26 1.23 1.19 1.17 1.18 1.21 1.27 1.27 1.28 1.29 1.28 1.28 1.28 1.25 1.29 1.32 1.34 1.32 1.40 1.56 1.58 1.66 1.59 1.59 1.62 1.65 1.72 1.72 1.71
1.41 1.48 1.56 1.40 1.32 1.25 1.22 1.17 1.13 1.16 1.18 1.20 1.23 1.25 1.26 1.24 1.19 1.17 1.19 1.21 1.27 1.30 1.29 1.30 1.25 1.27 1.26 1.28 1.28 1.33 1.34 1.35 1.53 1.48 1.51 1.58 1.54 1.58 1.60 1.64 1.57 1.65 1.66
1.49 1.49 1.51 1.43 1.37 1.29 1.26 1.20 1.16 1.15 1.19 1.21 1.24 1.24 1.24 1.25 1.24 1.21 1.22 1.23 1.29 1.31 1.32 1.27 1.26 1.23 1.27 1.29 1.30 1.33 1.34 1.35 1.46 1.49 1.47 1.54 1.52 1.52 1.53 1.51 1.54 1.49 1.50
1.39 1.53 1.50 1.47 1.39 1.34 1.30 1.24 1.17 1.16 1.17 1.19 1.22 1.24 1.27 1.27 1.27 1.28 1.24 1.28 1.31 1.35 1.33 1.26 1.24 1.27 1.28 1.31 1.32 1.35 1.31 1.36 1.40 1.43 1.45 1.51 1.50 1.46 1.52 1.57 1.58 1.55 1.59
0.92 1.48 1.53 1.47 1.42 1.38 1.35 1.31 1.20 1.18 1.16 1.18 1.21 1.23 1.24 1.28 1.30 1.32 1.30 1.34 1.33 1.36 1.34 1.27 1.27 1.27 1.28 1.32 1.34 1.36 1.31 1.44 1.32 1.43 1.45 1.41 1.45 1.44 1.46 1.52 1.59 1.61 1.62
0.55 1.17 1.54 1.48 1.50 1.44 1.36 1.34 1.26 1.24 1.21 1.20 1.20 1.23 1.23 1.27 1.37 1.33 1.38 1.36 1.35 1.32 1.28 1.23 1.23 1.26 1.24 1.37 1.44 1.36 1.37 1.45 1.35 1.41 1.41 1.29 1.34 1.37 1.40 1.47 1.64 1.59 1.62
0.45 0.75 1.44 1.54 1.46 1.44 1.40 1.31 1.28 1.23 1.25 1.21 1.21 1.24 1.21 1.23 1.30 1.34 1.32 1.35 1.30 1.28 1.25 1.23 1.21 1.23 1.27 1.33 1.35 1.50 1.44 1.43 1.41 1.46 1.35 1.29 1.29 1.32 1.33 1.42 1.44 1.51 1.59
0.40 0.46 0.81 1.53 1.48 1.43 1.38 1.33 1.26 1.20 1.26 1.22 1.22 1.20 1.21 1.21 1.24 1.31 1.30 1.36 1.27 1.33 1.27 1.26 1.23 1.19 1.28 1.30 1.28 1.33 1.36 1.39 1.34 1.37 1.40 1.36 1.27 1.33 1.34 1.32 1.33 1.52 1.54
0.47 0.45 0.55 1.14 1.53 1.48 1.40 1.33 1.26 1.21 1.26 1.26 1.25 1.23 1.18 1.19 1.23 1.27 1.26 1.26 1.29 1.28 1.34 1.34 1.25 1.21 1.24 1.22 1.22 1.24 1.28 1.33 1.32 1.32 1.38 1.35 1.31 1.25 1.31 1.33 1.32 1.34 1.50
0.33 0.48 0.52 0.86 1.37 1.52 1.41 1.35 1.30 1.19 1.20 1.26 1.18 1.20 1.17 1.18 1.17 1.18 1.23 1.25 1.26 1.29 1.32 1.31 1.29 1.29 1.24 1.23 1.22 1.25 1.23 1.24 1.24 1.23 1.29 1.35 1.32 1.27 1.22 1.29 1.28 1.31 1.44
0.23 0.36 0.52 0.58 1.04 1.41 1.49 1.40 1.30 1.23 1.18 1.17 1.17 1.17 1.14 1.14 1.19 1.19 1.17 1.20 1.27 1.30 1.24 1.24 1.24 1.18 1.16 1.18 1.14 1.21 1.23 1.25 1.25 1.18 1.23 1.28 1.31 1.29 1.25 1.20 1.27 1.30 1.34
0.26 0.24 0.38 0.52 0.63 1.21 1.43 1.50 1.35 1.25 1.16 1.12 1.14 1.14 1.14 1.15 1.17 1.22 1.12 1.14 1.26 1.23 1.21 1.20 1.18 1.17 1.08 1.09 1.13 1.15 1.18 1.17 1.20 1.25 1.23 1.23 1.21 1.24 1.22 1.23 1.20 1.25 1.30
0.34 0.38 0.53 0.60 0.68 0.94 1.28 1.47 1.42 1.26 1.20 1.15 1.10 1.09 1.16 1.16 1.14 1.20 1.16 1.16 1.17 1.18 1.20 1.15 1.12 1.15 1.12 1.08 1.11 1.12 1.15 1.17 1.18 1.15 1.14 1.18 1.17 1.19 1.21 1.26 1.31 1.29 1.30
0.58 0.61 0.62 0.60 0.69 0.78 1.25 1.29 1.41 1.20 1.16 1.08 1.03 1.04 1.13 1.18 1.11 1.12 1.12 1.13 1.12 1.10 1.12 1.15 1.16 1.12 1.08 1.13 1.06 1.03 1.08 1.15 1.14 1.13 1.14 1.11 1.11 1.15 1.14 1.16 1.29 1.32 1.30
0.54 0.58 0.59 0.57 0.58 0.76 1.23 1.33 1.46 1.34 1.19 1.07 1.03 1.02 1.01 1.06 1.10 1.10 1.10 1.11 1.12 1.11 1.12 1.15 1.18 1.16 1.08 1.12 0.96 0.94 0.79 0.89 1.02 1.07 1.08 1.06 1.04 1.10 1.07 1.13 1.17 1.23 1.25
0.49 0.52 0.49 0.54 0.57 0.69 1.04 1.51 1.40 1.44 1.30 1.14 1.03 1.06 1.07 1.11 1.17 1.12 1.11 1.13 1.14 1.15 1.12 1.17 1.22 1.19 1.04 1.06 1.11 0.91 0.77 0.69 0.83 1.04 1.09 1.05 1.05 1.07 1.10 1.11 1.11 1.13 1.19
0.51 0.54 0.52 0.50 0.56 0.73 1.06 1.33 1.32 1.37 1.14 1.10 1.09 1.14 1.18 1.28 1.34 1.38 1.32 1.29 1.26 1.25 1.18 1.22 1.27 1.25 1.22 1.03 1.14 1.13 1.07 0.99 0.85 0.82 1.06 1.08 1.09 1.06 1.06 1.08 1.12 1.15 1.21
0.54 0.52 0.56 0.55 0.59 0.66 0.92 1.16 1.35 1.35 1.34 1.27 1.19 1.25 1.32 1.36 1.44 1.48 1.47 1.44 1.37 1.37 1.33 1.34 1.30 1.31 1.31 1.19 1.12 1.08 1.05 1.09 1.07 0.95 0.80 0.94 1.09 1.11 1.08 1.08 1.09 1.14 1.21
0.59 0.55 0.60 0.59 0.64 0.72 0.81 1.07 1.30 1.44 1.49 1.46 1.40 1.51 1.42 1.42 1.40 1.47 1.44 1.43 1.44 1.40 1.35 1.34 1.39 1.36 1.35 1.43 1.29 1.26 1.17 1.05 1.00 1.02 0.95 0.91 0.92 1.05 1.07 1.11 1.13 1.15 1.19

GFSSE_prec_pwat_132.txt.gz
Precipitable_Water
1.32 1.25 1.02 1.04 1.11 1.15 1.08 1.07 1.06 1.09 1.16 1.16 1.17 1.13 1.09 1.05 1.07 1.10 1.15 1.12 1.16 1.22 1.26 1.28 1.27 1.26 1.29 1.38 1.43 1.45 1.46 1.47 1.50 1.58 1.59 1.62 1.62 1.59 1.55 1.65 1.78 1.75 1.75
1.45 1.31 1.10 1.02 1.14 1.19 1.10 1.10 1.05 1.11 1.18 1.18 1.19 1.16 1.12 1.08 1.09 1.13 1.20 1.21 1.23 1.25 1.27 1.26 1.30 1.33 1.38 1.41 1.39 1.45 1.45 1.49 1.54 1.57 1.65 1.66 1.58 1.61 1.60 1.69 1.81 1.78 1.78
1.32 1.22 1.20 1.05 1.15 1.20 1.13 1.15 1.08 1.12 1.19 1.19 1.18 1.17 1.15 1.13 1.13 1.13 1.21 1.26 1.27 1.29 1.26 1.27 1.30 1.33 1.36 1.35 1.40 1.43 1.46 1.51 1.53 1.61 1.63 1.68 1.66 1.66 1.68 1.75 1.77 1.72 1.74
1.32 1.28 1.26 1.15 1.16 1.23 1.15 1.15 1.10 1.11 1.18 1.20 1.20 1.18 1.16 1.16 1.16 1.16 1.18 1.22 1.24 1.28 1.27 1.29 1.26 1.32 1.35 1.36 1.40 1.42 1.43 1.43 1.47 1.51 1.57 1.78 1.70 1.61 1.71 1.74 1.70 1.71 1.75
1.15 1.32 1.33 1.20 1.19 1.28 1.20 1.19 1.12 1.10 1.13 1.20 1.21 1.20 1.19 1.17 1.17 1.17 1.19 1.19 1.21 1.25 1.28 1.31 1.32 1.30 1.36 1.36 1.35 1.34 1.30 1.30 1.36 1.43 1.67 1.47 1.82 1.64 1.70 1.69 1.69 1.70 1.70
1.24 1.40 1.42 1.26 1.22 1.30 1.26 1.24 1.17 1.15 1.15 1.18 1.21 1.19 1.21 1.20 1.18 1.18 1.17 1.18 1.20 1.25 1.29 1.31 1.32 1.32 1.34 1.34 1.30 1.27 1.25 1.26 1.31 1.50 1.61 1.63 1.65 1.64 1.66 1.66 1.67 1.68 1.69
1.38 1.45 1.49 1.31 1.25 1.30 1.28 1.25 1.21 1.17 1.15 1.16 1.19 1.19 1.21 1.22 1.20 1.18 1.17 1.16 1.19 1.24 1.31 1.33 1.32 1.31 1.29 1.26 1.25 1.24 1.26 1.29 1.38 1.49 1.53 1.51 1.61 1.59 1.56 1.58 1.62 1.66 1.64
1.45 1.54 1.59 1.42 1.26 1.26 1.28 1.22 1.19 1.16 1.14 1.14 1.18 1.21 1.21 1.22 1.22 1.20 1.19 1.19 1.20 1.25 1.30 1.32 1.31 1.31 1.29 1.25 1.24 1.26 1.26 1.33 1.41 1.55 1.54 1.49 1.56 1.53 1.55 1.57 1.63 1.64 1.65
1.43 1.61 1.67 1.54 1.37 1.29 1.25 1.22 1.21 1.18 1.16 1.15 1.18 1.21 1.23 1.23 1.23 1.22 1.22 1.22 1.25 1.26 1.28 1.30 1.28 1.28 1.27 1.26 1.24 1.25 1.27 1.31 1.42 1.67 1.43 1.46 1.49 1.51 1.53 1.58 1.56 1.58 1.57
1.33 1.55 1.54 1.50 1.42 1.33 1.26 1.23 1.24 1.20 1.19 1.19 1.20 1.22 1.20 1.23 1.24 1.24 1.22 1.24 1.27 1.30 1.30 1.29 1.25 1.24 1.22 1.24 1.25 1.24 1.27 1.28 1.35 1.41 1.50 1.42 1.47 1.53 1.53 1.55 1.53 1.56 1.55
1.02 1.41 1.56 1.59 1.47 1.35 1.30 1.24 1.22 1.20 1.20 1.20 1.22 1.24 1.26 1.24 1.22 1.22 1.24 1.23 1.28 1.32 1.36 1.32 1.24 1.22 1.22 1.24 1.23 1.23 1.25 1.26 1.39 1.37 1.65 1.49 1.44 1.50 1.48 1.44 1.50 1.57 1.54
0.51 0.78 1.42 1.57 1.59 1.44 1.37 1.31 1.23 1.22 1.21 1.21 1.21 1.22 1.22 1.21 1.22 1.22 1.22 1.25 1.29 1.35 1.40 1.33 1.27 1.24 1.23 1.21 1.21 1.23 1.25 1.36 1.46 1.40 1.38 1.50 1.38 1.36 1.39 1.40 1.41 1.52 1.59
0.45 0.53 1.15 1.52 1.63 1.58 1.44 1.42 1.34 1.23 1.17 1.16 1.17 1.20 1.20 1.20 1.24 1.20 1.25 1.26 1.34 1.33 1.33 1.31 1.22 1.21 1.18 1.24 1.29 1.28 1.28 1.43 1.56 1.43 1.47 1.35 1.29 1.26 1.29 1.32 1.37 1.46 1.46
0.41 0.45 0.58 1.47 1.60 1.67 1.63 1.48 1.42 1.28 1.21 1.15 1.16 1.21 1.18 1.17 1.21 1.17 1.23 1.28 1.29 1.28 1.27 1.28 1.23 1.19 1.20 1.27 1.33 1.35 1.39 1.42 1.57 1.52 1.44 1.33 1.28 1.23 1.27 1.32 1.33 1.32 1.35
0.30 0.44 0.50 0.70 1.47 1.59 1.59 1.69 1.54 1.37 1.28 1.20 1.20 1.21 1.23 1.15 1.17 1.18 1.21 1.23 1.26 1.26 1.21 1.24 1.23 1.23 1.21 1.23 1.30 1.27 1.28 1.25 1.36 1.36 1.46 1.36 1.33 1.29 1.26 1.29 1.30 1.26 1.27
0.25 0.30 0.46 0.52 0.72 1.38 1.66 1.68 1.57 1.58 1.39 1.30 1.24 1.20 1.22 1.19 1.17 1.23 1.23 1.21 1.20 1.18 1.19 1.21 1.22 1.26 1.28 1.27 1.25 1.23 1.25 1.24 1.24 1.40 1.29 1.33 1.35 1.31 1.27 1.27 1.28 1.27 1.29
0.29 0.29 0.29 0.45 0.54 0.92 1.45 1.65 1.64 1.55 1.44 1.36 1.32 1.29 1.25 1.18 1.19 1.24 1.21 1.20 1.20 1.20 1.14 1.20 1.17 1.28 1.23 1.28 1.22 1.22 1.22 1.24 1.31 1.27 1.30 1.28 1.26 1.27 1.27 1.28 1.24 1.23 1.29
0.50 0.47 0.38 0.36 0.50 0.61 1.24 1.37 1.59 1.59 1.54 1.35 1.33 1.29 1.28 1.23 1.15 1.31 1.25 1.13 1.22 1.23 1.21 1.15 1.12 1.09 1.12 1.17 1.15 1.16 1.14 1.24 1.28 1.25 1.29 1.34 1.27 1.26 1.24 1.23 1.23 1.22 1.22
0.49 0.53 0.52 0.50 0.60 0.76 0.81 1.40 1.40 1.59 1.54 1.50 1.39 1.31 1.18 1.20 1.19 1.24 1.27 1.23 1.23 1.24 1.26 1.20 1.12 1.11 1.08 1.11 1.10 1.13 1.14 1.12 1.19 1.19 1.20 1.24 1.27 1.26 1.24 1.29 1.28 1.24 1.23
0.49 0.54 0.54 0.56 0.57 0.67 0.79 0.93 1.49 1.39 1.56 1.54 1.40 1.29 1.19 1.14 1.12 1.19 1.24 1.22 1.32 1.17 1.16 1.17 1.13 1.19 1.13 1.09 1.14 1.10 1.11 1.12 1.13 1.11 1.14 1.17 1.18 1.18 1.22 1.21 1.23 1.25 1.27
0.40 0.44 0.52 0.53 0.57 0.59 0.67 0.80 1.06 1.38 1.38 1.54 1.49 1.32 1.22 1.15 1.12 1.13 1.21 1.18 1.22 1.19 1.14 1.16 1.16 1.11 1.08 1.11 1.05 1.10 1.13 1.15 1.10 1.09 1.14 1.10 1.10 1.13 1.15 1.14 1.15 1.17 1.21
0.45 0.42 0.45 0.47 0.51 0.52 0.60 0.78 1.01 1.19 1.46 1.45 1.60 1.41 1.24 1.22 1.20 1.09 1.17 1.14 1.08 1.06 1.16 1.16 1.13 1.04 1.06 1.14 0.99 1.00 0.85 0.96 1.06 1.06 1.10 1.14 1.12 1.12 1.11 1.16 1.17 1.14 1.17
0.48 0.49 0.50 0.49 0.47 0.46 0.51 0.66 0.87 1.09 1.35 1.43 1.51 1.45 1.33 1.26 1.18 1.15 1.11 1.18 1.12 1.11 1.04 1.10 1.11 1.07 0.98 1.14 1.20 1.00 0.83 0.71 0.81 1.01 1.07 1.15 1.18 1.13 1.14 1.15 1.15 1.21 1.21
0.51 0.55 0.56 0.57 0.53 0.50 0.47 0.59 0.69 0.88 1.12 1.39 1.35 1.56 1.38 1.24 1.18 1.15 1.13 1.11 1.17 1.13 1.08 1.10 1.18 1.13 1.11 0.98 1.21 1.22 1.12 1.10 0.87 0.80 1.05 1.14 1.22 1.11 1.13 1.17 1.15 1.18 1.17
0.53 0.54 0.57 0.58 0.57 0.53 0.49 0.55 0.65 0.75 1.02 1.41 1.42 1.51 1.42 1.27 1.17 1.19 1.16 1.16 1.25 1.23 1.18 1.18 1.23 1.23 1.19 1.14 1.15 1.13 1.13 1.09 1.11 0.97 0.79 0.97 1.14 1.15 1.16 1.20 1.20 1.17 1.11
0.50 0.53 0.58 0.59 0.56 0.56 0.55 0.57 0.64 0.73 0.93 1.30 1.45 1.60 1.43 1.40 1.32 1.32 1.28 1.25 1.36 1.44 1.39 1.36 1.37 1.38 1.34 1.30 1.26 1.20 1.14 1.06 1.05 1.05 0.99 0.94 1.00 1.11 1.13 1.18 1.20 1.16 1.16

GFSSE_prec_pwat_135.txt.gz
Precipitable_Water
1.36 1.40 1.21 1.02 1.08 1.08 1.05 1.03 0.99 0.98 1.06 1.06 1.09 1.02 0.97 0.98 1.00 1.01 1.06 1.11 1.15 1.19 1.16 1.16 1.19 1.24 1.31 1.33 1.39 1.45 1.49 1.52 1.51 1.58 1.61 1.64 1.64 1.62 1.60 1.64 1.75 1.71 1.75
1.39 1.47 1.36 1.10 1.09 1.14 1.10 1.06 1.01 0.99 1.07 1.07 1.10 1.08 1.03 1.02 1.07 1.07 1.08 1.10 1.14 1.20 1.22 1.21 1.22 1.26 1.36 1.43 1.42 1.45 1.49 1.51 1.55 1.56 1.57 1.59 1.55 1.61 1.65 1.73 1.68 1.71 1.73
1.28 1.34 1.25 1.21 1.09 1.17 1.15 1.09 1.06 1.03 1.07 1.09 1.12 1.10 1.06 1.04 1.06 1.12 1.17 1.18 1.21 1.21 1.21 1.24 1.26 1.32 1.36 1.36 1.42 1.43 1.49 1.53 1.55 1.56 1.56 1.63 1.66 1.64 1.69 1.77 1.73 1.72 1.73
1.34 1.38 1.36 1.30 1.16 1.17 1.19 1.14 1.11 1.08 1.09 1.10 1.13 1.13 1.10 1.09 1.11 1.11 1.16 1.19 1.21 1.23 1.22 1.22 1.25 1.30 1.34 1.35 1.41 1.46 1.45 1.46 1.46 1.47 1.50 1.69 1.73 1.69 1.66 1.72 1.68 1.72 1.74
1.24 1.29 1.40 1.38 1.27 1.19 1.21 1.19 1.14 1.09 1.11 1.10 1.12 1.13 1.12 1.11 1.12 1.13 1.15 1.15 1.18 1.21 1.23 1.28 1.27 1.28 1.32 1.33 1.36 1.33 1.35 1.32 1.34 1.36 1.44 1.47 1.59 1.69 1.66 1.66 1.65 1.68 1.71
1.26 1.31 1.45 1.41 1.31 1.21 1.24 1.24 1.19 1.12 1.11 1.09 1.11 1.13 1.13 1.12 1.14 1.14 1.15 1.16 1.18 1.21 1.23 1.26 1.26 1.28 1.32 1.32 1.28 1.25 1.29 1.30 1.34 1.39 1.48 1.51 1.60 1.52 1.59 1.59 1.60 1.64 1.66
1.32 1.39 1.48 1.47 1.32 1.26 1.29 1.31 1.24 1.17 1.15 1.15 1.13 1.13 1.14 1.15 1.15 1.15 1.16 1.17 1.18 1.22 1.25 1.25 1.23 1.25 1.27 1.24 1.21 1.20 1.28 1.35 1.39 1.46 1.53 1.48 1.50 1.53 1.56 1.56 1.60 1.63 1.63
1.32 1.45 1.54 1.61 1.39 1.28 1.31 1.32 1.28 1.21 1.19 1.18 1.17 1.14 1.14 1.17 1.17 1.17 1.17 1.17 1.20 1.24 1.27 1.25 1.22 1.22 1.22 1.20 1.17 1.22 1.26 1.37 1.40 1.46 1.65 1.51 1.47 1.53 1.55 1.55 1.57 1.61 1.63
1.22 1.31 1.49 1.65 1.58 1.37 1.33 1.31 1.28 1.21 1.20 1.17 1.16 1.15 1.15 1.17 1.17 1.19 1.18 1.19 1.20 1.23 1.25 1.23 1.22 1.20 1.19 1.18 1.19 1.21 1.23 1.35 1.40 1.51 1.59 1.44 1.47 1.48 1.53 1.50 1.53 1.55 1.54
1.20 1.12 1.22 1.42 1.51 1.44 1.37 1.34 1.28 1.22 1.19 1.17 1.17 1.16 1.18 1.20 1.20 1.19 1.20 1.21 1.22 1.23 1.24 1.24 1.24 1.20 1.19 1.17 1.18 1.20 1.21 1.31 1.34 1.45 1.51 1.46 1.45 1.46 1.49 1.46 1.43 1.48 1.51
0.84 1.14 1.06 1.27 1.41 1.40 1.39 1.36 1.31 1.27 1.23 1.22 1.21 1.20 1.21 1.20 1.21 1.20 1.19 1.20 1.24 1.25 1.24 1.27 1.22 1.19 1.17 1.19 1.17 1.18 1.20 1.27 1.31 1.41 1.48 1.46 1.46 1.41 1.41 1.40 1.34 1.42 1.49
0.40 0.48 1.17 1.25 1.45 1.53 1.43 1.39 1.34 1.31 1.29 1.25 1.23 1.21 1.22 1.21 1.19 1.16 1.17 1.19 1.23 1.26 1.27 1.26 1.21 1.21 1.18 1.19 1.16 1.15 1.17 1.26 1.44 1.43 1.41 1.27 1.37 1.30 1.31 1.28 1.31 1.34 1.45
0.27 0.38 0.50 1.06 1.39 1.61 1.57 1.47 1.39 1.33 1.30 1.27 1.24 1.20 1.19 1.18 1.18 1.15 1.14 1.16 1.21 1.26 1.29 1.27 1.21 1.17 1.17 1.15 1.12 1.12 1.23 1.34 1.43 1.48 1.50 1.39 1.30 1.24 1.21 1.24 1.27 1.26 1.32
0.27 0.30 0.40 0.46 0.89 1.43 1.79 1.68 1.56 1.41 1.31 1.26 1.25 1.23 1.18 1.13 1.11 1.10 1.09 1.11 1.16 1.23 1.21 1.23 1.17 1.15 1.16 1.23 1.26 1.27 1.32 1.33 1.42 1.48 1.49 1.42 1.32 1.27 1.20 1.19 1.23 1.28 1.29
0.37 0.41 0.46 0.52 0.50 0.66 1.24 1.74 1.69 1.57 1.43 1.35 1.26 1.24 1.20 1.14 1.09 1.13 1.14 1.16 1.20 1.23 1.23 1.17 1.15 1.11 1.10 1.17 1.27 1.30 1.30 1.35 1.36 1.32 1.30 1.34 1.30 1.25 1.25 1.20 1.21 1.23 1.26
0.42 0.42 0.47 0.52 0.64 0.70 0.72 1.28 1.65 1.68 1.70 1.59 1.44 1.28 1.26 1.19 1.15 1.16 1.13 1.17 1.19 1.23 1.26 1.19 1.17 1.12 1.11 1.17 1.22 1.24 1.29 1.30 1.28 1.29 1.28 1.29 1.23 1.26 1.26 1.24 1.19 1.18 1.18
0.39 0.42 0.44 0.49 0.58 0.64 0.70 0.82 1.30 1.71 1.73 1.73 1.61 1.46 1.28 1.24 1.18 1.17 1.12 1.12 1.20 1.20 1.18 1.21 1.20 1.17 1.16 1.17 1.14 1.21 1.22 1.29 1.23 1.25 1.27 1.25 1.28 1.27 1.24 1.22 1.23 1.19 1.15
0.40 0.40 0.42 0.44 0.49 0.59 0.64 0.71 0.92 1.44 1.72 1.68 1.76 1.62 1.42 1.31 1.23 1.22 1.13 1.12 1.21 1.23 1.17 1.13 1.14 1.11 1.07 1.10 1.08 1.14 1.13 1.21 1.18 1.24 1.27 1.25 1.26 1.28 1.25 1.24 1.23 1.23 1.18
0.36 0.36 0.39 0.44 0.44 0.49 0.57 0.65 0.77 1.02 1.37 1.68 1.66 1.63 1.60 1.44 1.34 1.21 1.15 1.15 1.21 1.21 1.15 1.13 1.08 1.10 1.02 1.06 1.09 1.12 1.13 1.11 1.14 1.22 1.18 1.15 1.22 1.17 1.22 1.23 1.20 1.22 1.23
0.38 0.38 0.37 0.36 0.43 0.46 0.50 0.57 0.65 0.80 1.12 1.52 1.65 1.68 1.68 1.59 1.40 1.34 1.24 1.23 1.29 1.16 1.11 1.16 1.13 1.13 1.06 1.05 1.10 1.09 1.12 1.14 1.17 1.16 1.16 1.17 1.18 1.19 1.19 1.18 1.15 1.13 1.17
0.39 0.38 0.39 0.37 0.36 0.40 0.43 0.45 0.51 0.59 0.82 1.18 1.49 1.73 1.72 1.72 1.43 1.36 1.26 1.23 1.26 1.14 1.10 1.15 1.18 1.09 1.07 1.13 1.07 1.04 1.11 1.18 1.15 1.16 1.18 1.14 1.12 1.12 1.16 1.17 1.17 1.13 1.14
0.41 0.42 0.44 0.44 0.44 0.44 0.43 0.44 0.50 0.57 0.68 0.91 1.25 1.49 1.57 1.61 1.59 1.40 1.28 1.24 1.19 1.15 1.19 1.18 1.17 1.08 1.13 1.18 0.99 0.96 0.80 0.98 1.11 1.13 1.14 1.13 1.11 1.16 1.12 1.14 1.14 1.09 1.12
0.42 0.44 0.47 0.48 0.50 0.53 0.54 0.49 0.47 0.53 0.58 0.69 0.92 1.26 1.53 1.66 1.75 1.46 1.26 1.24 1.24 1.20 1.15 1.15 1.14 1.09 0.99 1.11 1.12 0.95 0.80 0.71 0.86 1.04 1.03 1.07 1.11 1.15 1.18 1.17 1.16 1.14 1.14
0.43 0.48 0.49 0.51 0.53 0.58 0.62 0.55 0.50 0.41 0.42 0.54 0.72 1.01 1.34 1.56 1.68 1.64 1.34 1.24 1.17 1.20 1.16 1.15 1.15 1.11 1.07 0.95 1.10 1.08 1.06 1.00 0.80 0.76 1.02 1.06 1.14 1.16 1.21 1.20 1.21 1.21 1.19
0.46 0.47 0.49 0.51 0.52 0.55 0.60 0.62 0.58 0.50 0.48 0.54 0.68 0.89 1.13 1.44 1.58 1.77 1.57 1.32 1.17 1.18 1.14 1.12 1.11 1.12 1.13 1.05 1.00 1.02 1.08 1.09 1.10 0.98 0.82 0.94 1.14 1.18 1.25 1.24 1.26 1.27 1.23
0.49 0.49 0.49 0.50 0.52 0.58 0.61 0.63 0.58 0.53 0.50 0.49 0.60 0.81 0.94 1.39 1.50 1.67 1.71 1.48 1.35 1.22 1.17 1.11 1.10 1.12 1.13 1.13 1.14 1.08 1.03 1.03 0.97 1.01 0.97 0.97 0.95 1.08 1.25 1.32 1.32 1.32 1.35

GFSSE_prec_pwat_138.txt.gz
Precipitable_Water
1.41 1.40 1.25 1.17 1.15 1.08 1.06 1.03 1.00 0.93 0.95 1.00 0.99 0.95 0.94 0.97 1.00 1.02 1.07 1.12 1.17 1.18 1.19 1.18 1.19 1.29 1.35 1.35 1.36 1.45 1.46 1.45 1.47 1.49 1.53 1.58 1.63 1.59 1.58 1.59 1.63 1.64 1.67
1.41 1.48 1.44 1.30 1.15 1.11 1.08 1.07 1.01 0.96 0.94 0.99 1.02 0.99 0.96 0.97 0.99 1.03 1.07 1.13 1.17 1.17 1.18 1.20 1.23 1.28 1.31 1.37 1.42 1.42 1.44 1.45 1.45 1.48 1.53 1.58 1.58 1.64 1.64 1.65 1.67 1.68 1.71
1.30 1.41 1.38 1.33 1.27 1.18 1.12 1.11 1.05 1.01 0.97 0.97 1.00 0.99 0.99 1.01 1.02 1.04 1.05 1.07 1.13 1.17 1.19 1.23 1.25 1.33 1.36 1.36 1.39 1.42 1.46 1.45 1.47 1.47 1.45 1.53 1.62 1.68 1.70 1.69 1.69 1.67 1.68
1.20 1.33 1.39 1.44 1.37 1.24 1.16 1.13 1.10 1.07 1.02 1.00 1.01 1.00 0.99 1.02 1.03 1.06 1.11 1.11 1.12 1.15 1.19 1.24 1.27 1.30 1.31 1.34 1.38 1.41 1.43 1.45 1.44 1.47 1.50 1.56 1.61 1.65 1.72 1.64 1.65 1.66 1.67
1.17 1.33 1.40 1.41 1.48 1.37 1.21 1.20 1.18 1.13 1.07 1.04 1.04 1.03 1.02 1.04 1.05 1.06 1.09 1.11 1.14 1.17 1.18 1.22 1.23 1.26 1.29 1.33 1.35 1.34 1.33 1.35 1.36 1.35 1.40 1.49 1.57 1.64 1.65 1.59 1.59 1.60 1.61
1.27 1.34 1.40 1.40 1.44 1.45 1.28 1.24 1.23 1.18 1.11 1.08 1.08 1.07 1.04 1.05 1.07 1.08 1.10 1.10 1.13 1.17 1.22 1.24 1.23 1.25 1.31 1.29 1.24 1.21 1.22 1.27 1.33 1.33 1.32 1.47 1.59 1.55 1.53 1.54 1.52 1.54 1.58
1.26 1.40 1.44 1.42 1.43 1.46 1.34 1.30 1.29 1.24 1.16 1.12 1.13 1.11 1.08 1.07 1.09 1.10 1.09 1.11 1.12 1.16 1.20 1.22 1.20 1.24 1.30 1.27 1.19 1.16 1.21 1.27 1.29 1.39 1.38 1.51 1.48 1.48 1.51 1.51 1.49 1.52 1.55
1.12 1.14 1.22 1.34 1.54 1.50 1.40 1.36 1.36 1.31 1.23 1.17 1.17 1.17 1.12 1.10 1.09 1.11 1.10 1.11 1.13 1.16 1.21 1.22 1.21 1.22 1.24 1.21 1.18 1.19 1.22 1.28 1.30 1.36 1.44 1.53 1.46 1.47 1.48 1.48 1.45 1.50 1.55
1.22 1.22 1.12 1.19 1.32 1.58 1.45 1.38 1.40 1.38 1.31 1.23 1.23 1.22 1.19 1.16 1.13 1.11 1.11 1.11 1.12 1.16 1.21 1.21 1.21 1.23 1.22 1.20 1.20 1.21 1.24 1.29 1.33 1.37 1.44 1.49 1.45 1.43 1.43 1.44 1.41 1.45 1.49
0.85 1.08 1.43 1.36 1.40 1.49 1.54 1.42 1.43 1.45 1.38 1.30 1.29 1.29 1.26 1.23 1.19 1.15 1.13 1.13 1.13 1.16 1.19 1.20 1.20 1.20 1.22 1.18 1.22 1.23 1.29 1.30 1.30 1.37 1.40 1.37 1.44 1.45 1.41 1.39 1.37 1.35 1.43
0.41 0.48 0.96 1.44 1.48 1.54 1.61 1.54 1.46 1.47 1.39 1.31 1.28 1.28 1.28 1.25 1.22 1.18 1.15 1.14 1.14 1.14 1.16 1.18 1.22 1.22 1.20 1.19 1.19 1.21 1.25 1.30 1.24 1.33 1.39 1.35 1.42 1.45 1.34 1.33 1.29 1.28 1.39
0.45 0.47 0.52 0.60 0.96 1.44 1.59 1.58 1.48 1.45 1.41 1.34 1.30 1.30 1.30 1.26 1.24 1.20 1.20 1.18 1.17 1.16 1.18 1.19 1.20 1.21 1.19 1.16 1.18 1.21 1.23 1.29 1.27 1.43 1.46 1.36 1.32 1.33 1.29 1.27 1.26 1.28 1.26
0.45 0.45 0.50 0.51 0.59 0.85 1.36 1.63 1.61 1.51 1.42 1.36 1.33 1.30 1.29 1.30 1.29 1.24 1.20 1.20 1.20 1.20 1.18 1.23 1.22 1.17 1.15 1.15 1.14 1.17 1.22 1.29 1.37 1.42 1.46 1.39 1.34 1.29 1.25 1.25 1.22 1.23 1.23
0.41 0.46 0.50 0.53 0.55 0.63 0.96 1.29 1.54 1.74 1.60 1.47 1.39 1.38 1.30 1.24 1.23 1.21 1.15 1.14 1.14 1.17 1.14 1.18 1.19 1.16 1.14 1.16 1.16 1.12 1.22 1.33 1.34 1.45 1.48 1.39 1.37 1.34 1.25 1.21 1.20 1.19 1.19
0.33 0.36 0.41 0.47 0.52 0.55 0.65 0.84 1.11 1.42 1.68 1.72 1.58 1.42 1.38 1.27 1.18 1.20 1.15 1.12 1.11 1.13 1.15 1.13 1.15 1.13 1.09 1.11 1.23 1.25 1.22 1.29 1.40 1.43 1.39 1.32 1.30 1.29 1.26 1.24 1.21 1.17 1.19
0.33 0.32 0.35 0.38 0.44 0.50 0.53 0.57 0.73 1.15 1.43 1.78 1.75 1.66 1.49 1.35 1.23 1.18 1.15 1.12 1.11 1.12 1.16 1.15 1.09 1.09 1.06 1.08 1.15 1.27 1.31 1.35 1.35 1.29 1.28 1.31 1.27 1.22 1.25 1.29 1.27 1.30 1.20
0.35 0.35 0.34 0.34 0.38 0.41 0.46 0.52 0.56 0.71 1.13 1.35 1.65 1.74 1.75 1.60 1.36 1.24 1.16 1.14 1.13 1.16 1.19 1.20 1.15 1.12 1.07 1.08 1.07 1.20 1.25 1.24 1.28 1.27 1.27 1.27 1.30 1.22 1.18 1.20 1.21 1.24 1.24
0.34 0.33 0.35 0.36 0.35 0.35 0.38 0.44 0.50 0.57 0.72 1.12 1.42 1.79 1.78 1.77 1.64 1.36 1.15 1.12 1.19 1.18 1.22 1.19 1.11 1.07 1.03 1.02 1.04 1.09 1.16 1.22 1.23 1.24 1.25 1.24 1.25 1.18 1.22 1.24 1.19 1.20 1.22
0.35 0.34 0.34 0.36 0.36 0.34 0.35 0.37 0.43 0.49 0.57 0.74 1.11 1.42 1.70 1.82 1.79 1.62 1.26 1.19 1.23 1.18 1.19 1.18 1.10 1.07 0.99 1.00 1.01 1.05 1.11 1.15 1.11 1.18 1.16 1.19 1.20 1.20 1.16 1.13 1.18 1.21 1.23
0.36 0.36 0.37 0.38 0.38 0.38 0.38 0.37 0.37 0.41 0.49 0.56 0.76 1.13 1.42 1.65 1.87 1.80 1.56 1.27 1.25 1.19 1.14 1.19 1.11 1.11 1.04 1.00 1.01 1.00 1.08 1.12 1.13 1.10 1.15 1.20 1.19 1.15 1.18 1.12 1.18 1.15 1.19
0.36 0.36 0.37 0.37 0.39 0.41 0.41 0.39 0.38 0.33 0.39 0.49 0.57 0.77 1.11 1.39 1.56 1.79 1.72 1.49 1.30 1.21 1.13 1.16 1.14 1.07 1.05 1.06 1.01 1.01 1.06 1.11 1.11 1.10 1.16 1.14 1.16 1.18 1.19 1.16 1.11 1.16 1.16
0.35 0.36 0.38 0.40 0.41 0.43 0.45 0.47 0.47 0.45 0.41 0.44 0.53 0.59 0.81 1.16 1.40 1.55 1.63 1.64 1.40 1.26 1.24 1.20 1.14 1.08 1.11 1.12 0.92 0.92 0.79 0.91 1.02 1.07 1.12 1.12 1.10 1.18 1.16 1.17 1.16 1.15 1.14
0.36 0.38 0.40 0.43 0.44 0.48 0.51 0.51 0.53 0.52 0.49 0.44 0.42 0.50 0.57 0.87 1.24 1.45 1.74 1.73 1.54 1.33 1.23 1.19 1.16 1.08 1.03 1.12 1.11 0.90 0.76 0.68 0.81 1.01 1.06 1.09 1.09 1.11 1.16 1.19 1.22 1.18 1.16
0.39 0.42 0.44 0.46 0.47 0.49 0.52 0.53 0.52 0.49 0.46 0.50 0.50 0.46 0.50 0.63 0.98 1.24 1.61 1.61 1.68 1.61 1.30 1.17 1.19 1.10 1.13 1.00 1.11 1.08 0.97 0.83 0.70 0.68 0.97 1.05 1.10 1.09 1.13 1.19 1.23 1.24 1.24
0.42 0.43 0.47 0.50 0.50 0.49 0.48 0.51 0.50 0.52 0.54 0.58 0.57 0.51 0.46 0.51 0.77 1.11 1.31 1.48 1.59 1.66 1.45 1.34 1.25 1.14 1.15 1.07 1.02 1.02 0.98 0.94 0.93 0.80 0.69 0.84 1.04 1.14 1.18 1.21 1.28 1.29 1.34
0.45 0.47 0.50 0.51 0.49 0.51 0.54 0.57 0.58 0.56 0.56 0.54 0.57 0.55 0.53 0.50 0.69 1.04 1.11 1.36 1.64 1.64 1.59 1.41 1.36 1.24 1.15 1.12 1.12 1.13 1.00 0.91 0.87 0.89 0.84 0.89 0.93 1.05 1.19 1.23 1.25 1.32 1.39

GFSSE_prec_pwat_141.txt.gz
Precipitable_Water
1.36 1.39 1.31 1.24 1.25 1.20 1.15 1.13 1.05 0.96 0.95 0.92 0.88 0.86 0.94 1.06 1.11 1.12 1.12 1.14 1.18 1.26 1.28 1.25 1.23 1.26 1.30 1.29 1.32 1.39 1.43 1.42 1.45 1.46 1.49 1.53 1.55 1.56 1.56 1.60 1.60 1.62 1.65
1.45 1.46 1.45 1.43 1.31 1.19 1.16 1.16 1.12 1.02 0.99 0.96 0.92 0.90 0.92 0.96 1.00 1.04 1.08 1.10 1.12 1.13 1.16 1.17 1.21 1.27 1.27 1.28 1.33 1.35 1.37 1.40 1.41 1.43 1.48 1.54 1.57 1.60 1.61 1.60 1.60 1.63 1.67
1.28 1.39 1.43 1.43 1.37 1.32 1.20 1.17 1.15 1.10 1.05 1.01 0.97 0.94 0.94 0.99 1.00 1.03 1.05 1.06 1.08 1.10 1.13 1.15 1.21 1.26 1.27 1.33 1.33 1.34 1.38 1.39 1.39 1.43 1.44 1.47 1.57 1.63 1.61 1.63 1.62 1.62 1.63
1.32 1.36 1.38 1.43 1.45 1.44 1.30 1.20 1.18 1.17 1.12 1.07 1.02 1.00 0.98 1.00 1.02 1.05 1.09 1.10 1.11 1.12 1.13 1.16 1.23 1.30 1.30 1.32 1.31 1.36 1.38 1.35 1.35 1.35 1.39 1.44 1.54 1.60 1.66 1.63 1.62 1.60 1.57
1.22 1.25 1.33 1.42 1.49 1.51 1.42 1.27 1.23 1.21 1.18 1.14 1.09 1.05 1.03 1.05 1.05 1.07 1.12 1.12 1.14 1.15 1.16 1.19 1.21 1.22 1.26 1.30 1.34 1.36 1.34 1.32 1.31 1.32 1.34 1.43 1.51 1.59 1.60 1.54 1.55 1.55 1.54
1.25 1.31 1.34 1.32 1.38 1.44 1.46 1.36 1.28 1.26 1.23 1.19 1.15 1.11 1.09 1.08 1.09 1.09 1.09 1.11 1.12 1.15 1.16 1.17 1.18 1.20 1.22 1.28 1.31 1.27 1.26 1.26 1.23 1.23 1.29 1.44 1.49 1.57 1.50 1.50 1.51 1.51 1.52
1.07 1.15 1.16 1.27 1.40 1.45 1.46 1.44 1.37 1.34 1.33 1.27 1.24 1.20 1.17 1.11 1.10 1.10 1.08 1.09 1.08 1.12 1.15 1.16 1.18 1.20 1.24 1.26 1.24 1.21 1.24 1.27 1.28 1.24 1.26 1.39 1.49 1.48 1.47 1.46 1.47 1.47 1.50
1.36 1.37 1.35 1.37 1.46 1.53 1.55 1.54 1.43 1.41 1.39 1.34 1.31 1.27 1.23 1.17 1.14 1.13 1.09 1.08 1.07 1.11 1.13 1.13 1.14 1.17 1.23 1.22 1.18 1.18 1.24 1.30 1.31 1.33 1.33 1.41 1.45 1.43 1.43 1.43 1.45 1.43 1.48
0.82 1.16 1.42 1.47 1.51 1.53 1.61 1.63 1.54 1.41 1.39 1.36 1.32 1.28 1.25 1.25 1.21 1.19 1.15 1.13 1.10 1.11 1.14 1.15 1.13 1.16 1.18 1.15 1.14 1.19 1.24 1.32 1.31 1.38 1.38 1.45 1.45 1.44 1.43 1.40 1.39 1.39 1.40
0.55 0.69 0.88 1.06 1.20 1.43 1.52 1.62 1.63 1.54 1.45 1.43 1.42 1.37 1.33 1.31 1.27 1.24 1.22 1.18 1.13 1.12 1.13 1.15 1.14 1.14 1.16 1.15 1.13 1.17 1.24 1.31 1.33 1.38 1.41 1.39 1.41 1.46 1.47 1.37 1.36 1.35 1.33
0.44 0.48 0.59 0.67 0.82 1.04 1.37 1.56 1.62 1.62 1.59 1.57 1.51 1.44 1.37 1.33 1.31 1.28 1.24 1.20 1.17 1.15 1.15 1.13 1.14 1.15 1.16 1.14 1.13 1.15 1.21 1.27 1.27 1.30 1.38 1.38 1.39 1.49 1.46 1.36 1.31 1.28 1.30
0.45 0.47 0.51 0.52 0.54 0.70 1.00 1.28 1.47 1.60 1.61 1.60 1.58 1.50 1.44 1.36 1.31 1.29 1.25 1.23 1.19 1.18 1.17 1.16 1.15 1.18 1.19 1.14 1.12 1.13 1.14 1.20 1.22 1.24 1.42 1.40 1.38 1.45 1.39 1.30 1.29 1.25 1.25
0.43 0.45 0.46 0.48 0.52 0.51 0.57 0.87 1.13 1.38 1.54 1.59 1.60 1.59 1.51 1.43 1.37 1.33 1.29 1.28 1.23 1.22 1.18 1.17 1.16 1.21 1.16 1.14 1.10 1.09 1.13 1.17 1.21 1.31 1.51 1.42 1.36 1.44 1.38 1.27 1.26 1.23 1.22
0.37 0.38 0.41 0.43 0.45 0.48 0.51 0.55 0.76 1.09 1.34 1.47 1.59 1.65 1.58 1.50 1.41 1.34 1.29 1.26 1.22 1.21 1.15 1.14 1.14 1.18 1.19 1.16 1.12 1.07 1.11 1.16 1.26 1.30 1.41 1.46 1.36 1.37 1.39 1.29 1.27 1.22 1.19
0.31 0.32 0.34 0.35 0.37 0.38 0.41 0.45 0.53 0.61 0.93 1.24 1.52 1.74 1.71 1.58 1.50 1.46 1.35 1.30 1.24 1.20 1.13 1.10 1.13 1.12 1.15 1.13 1.13 1.07 1.08 1.14 1.26 1.35 1.39 1.43 1.34 1.34 1.42 1.37 1.28 1.24 1.21
0.31 0.31 0.32 0.33 0.35 0.35 0.35 0.37 0.40 0.46 0.55 0.70 1.14 1.43 1.70 1.73 1.59 1.54 1.42 1.33 1.25 1.21 1.16 1.10 1.07 1.08 1.11 1.13 1.07 1.11 1.08 1.15 1.25 1.34 1.34 1.35 1.28 1.24 1.26 1.31 1.32 1.32 1.32
0.33 0.33 0.33 0.33 0.35 0.34 0.33 0.34 0.36 0.40 0.43 0.48 0.62 1.08 1.38 1.68 1.79 1.67 1.55 1.42 1.29 1.25 1.19 1.15 1.11 1.15 1.10 1.12 1.06 1.10 1.17 1.20 1.21 1.26 1.26 1.25 1.27 1.26 1.19 1.20 1.19 1.28 1.30
0.33 0.32 0.33 0.34 0.34 0.34 0.35 0.35 0.36 0.37 0.41 0.41 0.49 0.57 0.97 1.38 1.64 1.72 1.65 1.58 1.47 1.37 1.22 1.16 1.09 1.10 1.08 1.04 1.01 1.03 1.13 1.16 1.17 1.17 1.22 1.21 1.25 1.20 1.23 1.13 1.15 1.14 1.20
0.35 0.34 0.34 0.34 0.35 0.35 0.36 0.38 0.38 0.39 0.38 0.40 0.45 0.48 0.56 0.95 1.37 1.54 1.67 1.70 1.67 1.46 1.30 1.19 1.13 1.13 1.08 1.04 1.03 1.02 1.12 1.11 1.10 1.11 1.12 1.12 1.18 1.20 1.20 1.16 1.13 1.10 1.12
0.36 0.36 0.36 0.36 0.36 0.37 0.38 0.38 0.39 0.40 0.42 0.44 0.42 0.44 0.50 0.61 0.92 1.30 1.53 1.70 1.69 1.63 1.40 1.24 1.15 1.20 1.15 1.06 1.05 0.99 1.07 1.10 1.12 1.08 1.05 1.08 1.12 1.15 1.21 1.19 1.15 1.10 1.11
0.37 0.37 0.36 0.35 0.36 0.37 0.37 0.36 0.36 0.37 0.40 0.43 0.48 0.48 0.44 0.50 0.62 0.92 1.26 1.48 1.70 1.53 1.52 1.35 1.21 1.18 1.18 1.16 1.05 1.04 1.05 1.09 1.08 1.08 1.10 1.08 1.08 1.09 1.15 1.16 1.18 1.21 1.12
0.38 0.37 0.36 0.36 0.38 0.39 0.39 0.40 0.41 0.42 0.45 0.48 0.50 0.52 0.50 0.46 0.56 0.70 1.00 1.23 1.61 1.61 1.52 1.49 1.25 1.17 1.21 1.20 0.97 0.95 0.82 0.94 1.03 1.07 1.08 1.09 1.06 1.09 1.10 1.15 1.18 1.20 1.21
0.38 0.38 0.38 0.38 0.40 0.41 0.42 0.44 0.45 0.47 0.49 0.48 0.51 0.52 0.53 0.51 0.48 0.55 0.62 0.87 1.32 1.59 1.56 1.52 1.38 1.26 1.09 1.21 1.17 0.94 0.77 0.71 0.83 0.99 1.01 1.04 1.06 1.08 1.11 1.13 1.16 1.17 1.20
0.40 0.40 0.40 0.42 0.43 0.44 0.47 0.46 0.46 0.44 0.41 0.46 0.48 0.53 0.57 0.58 0.51 0.49 0.53 0.66 0.98 1.44 1.55 1.56 1.56 1.38 1.26 1.12 1.18 1.15 1.06 0.93 0.76 0.65 0.91 0.98 1.07 1.05 1.05 1.10 1.13 1.17 1.21
0.41 0.41 0.43 0.45 0.46 0.48 0.49 0.50 0.46 0.44 0.46 0.49 0.52 0.50 0.52 0.59 0.63 0.57 0.51 0.51 0.70 1.20 1.46 1.33 1.32 1.45 1.34 1.18 1.08 1.11 1.09 1.01 0.96 0.77 0.60 0.77 1.00 1.09 1.13 1.12 1.15 1.19 1.24
0.43 0.44 0.45 0.46 0.48 0.50 0.51 0.51 0.50 0.50 0.51 0.52 0.55 0.58 0.58 0.60 0.65 0.70 0.64 0.59 0.70 0.94 1.34 1.43 1.50 1.50 1.48 1.31 1.21 1.16 1.09 0.98 0.87 0.85 0.76 0.77 0.81 0.95 1.10 1.19 1.18 1.21 1.27

GFSSE_prec_pwat_144.txt.gz
Precipitable_Water
1.31 1.39 1.31 1.31 1.29 1.26 1.23 1.19 1.17 1.13 1.06 1.00 0.93 0.93 1.02 1.07 1.14 1.15 1.14 1.15 1.16 1.21 1.20 1.19 1.23 1.26 1.24 1.28 1.31 1.40 1.41 1.39 1.43 1.46 1.48 1.48 1.52 1.55 1.56 1.61 1.62 1.62 1.67
1.45 1.52 1.48 1.44 1.43 1.34 1.27 1.23 1.21 1.19 1.15 1.07 0.99 0.97 1.02 1.12 1.17 1.16 1.15 1.14 1.16 1.21 1.21 1.18 1.19 1.18 1.22 1.22 1.31 1.33 1.35 1.37 1.39 1.42 1.45 1.49 1.55 1.58 1.59 1.61 1.62 1.65 1.64
1.34 1.44 1.47 1.48 1.49 1.42 1.36 1.30 1.25 1.20 1.19 1.17 1.06 1.00 1.02 1.06 1.11 1.14 1.14 1.14 1.13 1.13 1.14 1.16 1.17 1.15 1.16 1.23 1.29 1.29 1.34 1.36 1.37 1.41 1.44 1.45 1.51 1.58 1.56 1.60 1.59 1.60 1.61
1.43 1.45 1.44 1.45 1.46 1.45 1.43 1.40 1.33 1.25 1.23 1.25 1.19 1.07 1.00 1.01 1.04 1.07 1.08 1.08 1.10 1.10 1.11 1.14 1.16 1.14 1.19 1.23 1.25 1.27 1.32 1.34 1.34 1.36 1.35 1.40 1.49 1.58 1.57 1.59 1.55 1.56 1.51
1.40 1.48 1.49 1.52 1.56 1.56 1.53 1.47 1.42 1.37 1.31 1.31 1.30 1.23 1.11 1.07 1.05 1.05 1.08 1.08 1.11 1.11 1.15 1.18 1.19 1.16 1.17 1.21 1.24 1.29 1.32 1.31 1.31 1.31 1.30 1.34 1.48 1.57 1.57 1.53 1.52 1.51 1.48
1.34 1.35 1.39 1.44 1.47 1.50 1.50 1.47 1.41 1.40 1.36 1.33 1.32 1.29 1.21 1.12 1.09 1.08 1.08 1.09 1.10 1.13 1.17 1.18 1.18 1.14 1.15 1.20 1.26 1.29 1.27 1.25 1.24 1.26 1.30 1.37 1.49 1.56 1.53 1.47 1.48 1.47 1.46
1.29 1.37 1.37 1.39 1.43 1.46 1.50 1.54 1.50 1.40 1.38 1.35 1.33 1.35 1.32 1.26 1.20 1.17 1.12 1.09 1.11 1.14 1.17 1.16 1.16 1.16 1.16 1.19 1.23 1.24 1.23 1.24 1.22 1.21 1.28 1.40 1.46 1.57 1.48 1.47 1.47 1.45 1.47
1.12 1.12 1.14 1.20 1.33 1.41 1.47 1.53 1.58 1.56 1.51 1.46 1.40 1.39 1.40 1.34 1.27 1.22 1.18 1.12 1.10 1.12 1.14 1.15 1.14 1.14 1.16 1.18 1.19 1.18 1.18 1.21 1.25 1.26 1.25 1.34 1.46 1.48 1.48 1.45 1.44 1.43 1.42
0.88 0.93 0.87 0.93 1.08 1.29 1.45 1.51 1.57 1.61 1.64 1.59 1.51 1.44 1.44 1.42 1.34 1.25 1.22 1.17 1.11 1.09 1.10 1.12 1.14 1.15 1.15 1.15 1.13 1.12 1.16 1.19 1.24 1.28 1.30 1.37 1.43 1.46 1.47 1.43 1.42 1.38 1.36
0.60 0.60 0.71 0.75 0.83 0.99 1.14 1.33 1.49 1.59 1.61 1.62 1.66 1.53 1.48 1.46 1.39 1.32 1.26 1.22 1.17 1.13 1.11 1.11 1.12 1.15 1.15 1.14 1.12 1.11 1.14 1.19 1.22 1.27 1.32 1.37 1.43 1.43 1.45 1.44 1.41 1.35 1.34
0.48 0.49 0.51 0.54 0.55 0.65 0.83 0.98 1.19 1.40 1.53 1.61 1.62 1.67 1.64 1.54 1.46 1.37 1.33 1.29 1.24 1.18 1.14 1.11 1.11 1.14 1.16 1.16 1.15 1.13 1.15 1.21 1.23 1.26 1.32 1.34 1.36 1.44 1.49 1.43 1.35 1.34 1.31
0.43 0.45 0.46 0.47 0.48 0.49 0.52 0.66 0.86 1.03 1.28 1.42 1.54 1.61 1.62 1.66 1.63 1.48 1.40 1.35 1.33 1.29 1.22 1.16 1.14 1.13 1.16 1.15 1.15 1.15 1.11 1.19 1.22 1.20 1.25 1.33 1.37 1.43 1.50 1.39 1.35 1.35 1.29
0.41 0.41 0.43 0.44 0.47 0.46 0.45 0.47 0.49 0.60 0.88 1.08 1.40 1.47 1.60 1.60 1.60 1.57 1.50 1.42 1.37 1.32 1.26 1.21 1.16 1.13 1.13 1.16 1.13 1.13 1.12 1.15 1.23 1.25 1.31 1.41 1.36 1.39 1.43 1.32 1.29 1.32 1.25
0.35 0.36 0.38 0.39 0.39 0.39 0.40 0.42 0.44 0.44 0.50 0.69 0.97 1.28 1.52 1.58 1.56 1.55 1.56 1.50 1.40 1.35 1.26 1.20 1.15 1.11 1.11 1.17 1.17 1.10 1.10 1.10 1.18 1.25 1.32 1.43 1.39 1.35 1.40 1.35 1.26 1.26 1.23
0.33 0.33 0.33 0.34 0.34 0.34 0.34 0.34 0.35 0.37 0.40 0.45 0.55 0.81 1.18 1.48 1.57 1.65 1.61 1.59 1.52 1.44 1.31 1.22 1.16 1.11 1.09 1.11 1.16 1.11 1.07 1.08 1.15 1.24 1.31 1.38 1.47 1.32 1.36 1.38 1.33 1.27 1.22
0.32 0.32 0.33 0.33 0.34 0.34 0.32 0.32 0.32 0.34 0.36 0.39 0.41 0.46 0.69 1.02 1.33 1.57 1.69 1.64 1.58 1.54 1.47 1.31 1.20 1.12 1.10 1.09 1.10 1.13 1.08 1.09 1.14 1.21 1.34 1.38 1.42 1.34 1.29 1.36 1.40 1.35 1.27
0.33 0.34 0.35 0.36 0.37 0.35 0.34 0.34 0.34 0.35 0.36 0.36 0.38 0.41 0.47 0.57 0.84 1.19 1.48 1.70 1.68 1.62 1.61 1.41 1.28 1.22 1.14 1.14 1.07 1.11 1.12 1.09 1.10 1.15 1.28 1.34 1.36 1.35 1.25 1.22 1.24 1.27 1.32
0.34 0.34 0.35 0.36 0.36 0.36 0.36 0.36 0.36 0.36 0.37 0.39 0.40 0.41 0.41 0.45 0.54 0.75 1.06 1.42 1.71 1.72 1.64 1.52 1.32 1.20 1.11 1.09 1.06 1.04 1.08 1.11 1.10 1.15 1.26 1.28 1.29 1.29 1.24 1.22 1.19 1.16 1.21
0.36 0.36 0.36 0.37 0.37 0.38 0.38 0.38 0.37 0.38 0.37 0.40 0.42 0.44 0.44 0.44 0.46 0.53 0.76 1.01 1.46 1.71 1.73 1.61 1.44 1.27 1.14 1.06 1.06 1.06 1.04 1.07 1.13 1.19 1.18 1.22 1.25 1.27 1.20 1.20 1.18 1.13 1.16
0.39 0.39 0.39 0.39 0.40 0.40 0.40 0.39 0.38 0.38 0.39 0.40 0.41 0.45 0.47 0.49 0.47 0.45 0.48 0.67 0.99 1.48 1.64 1.66 1.56 1.44 1.21 1.15 1.06 1.07 1.06 1.06 1.08 1.15 1.14 1.18 1.19 1.21 1.18 1.14 1.17 1.12 1.16
0.40 0.41 0.40 0.40 0.41 0.40 0.37 0.35 0.35 0.34 0.37 0.39 0.43 0.45 0.48 0.51 0.51 0.50 0.46 0.49 0.65 0.98 1.35 1.64 1.58 1.53 1.32 1.23 1.10 1.09 1.07 1.09 1.06 1.09 1.17 1.18 1.12 1.17 1.22 1.20 1.12 1.11 1.08
0.41 0.41 0.41 0.41 0.41 0.40 0.40 0.41 0.41 0.39 0.40 0.41 0.45 0.48 0.51 0.52 0.54 0.53 0.53 0.52 0.61 0.72 1.02 1.27 1.43 1.57 1.50 1.31 1.07 1.03 0.88 0.93 1.00 1.04 1.09 1.11 1.10 1.11 1.13 1.15 1.11 1.13 1.12
0.42 0.41 0.41 0.42 0.41 0.41 0.42 0.43 0.43 0.43 0.43 0.43 0.45 0.48 0.51 0.55 0.56 0.56 0.56 0.53 0.47 0.50 0.58 1.02 1.29 1.67 1.50 1.46 1.27 1.06 0.91 0.72 0.86 0.98 0.98 1.06 1.08 1.06 1.11 1.14 1.13 1.16 1.19
0.43 0.43 0.43 0.43 0.42 0.43 0.44 0.43 0.42 0.40 0.38 0.44 0.47 0.49 0.52 0.56 0.55 0.55 0.58 0.57 0.52 0.48 0.48 0.81 1.14 1.27 1.26 1.30 1.39 1.32 1.21 1.02 0.78 0.69 0.93 0.98 1.07 1.05 1.05 1.11 1.11 1.15 1.19
0.44 0.43 0.43 0.43 0.43 0.45 0.45 0.46 0.44 0.42 0.45 0.47 0.49 0.50 0.53 0.56 0.59 0.59 0.60 0.64 0.58 0.52 0.51 0.63 0.93 1.19 1.25 1.18 1.32 1.23 1.22 1.19 1.04 0.77 0.66 0.81 0.98 1.03 1.06 1.11 1.11 1.13 1.19
0.45 0.44 0.44 0.43 0.44 0.45 0.47 0.47 0.46 0.45 0.46 0.47 0.50 0.52 0.55 0.59 0.62 0.63 0.67 0.67 0.66 0.61 0.53 0.49 0.81 1.00 1.15 1.28 1.36 1.35 1.18 1.12 1.06 0.87 0.77 0.77 0.78 0.89 1.03 1.12 1.14 1.16 1.21

GFSSE_prec_pwat_147.txt.gz
Precipitable_Water
1.37 1.45 1.47 1.48 1.43 1.38 1.31 1.27 1.27 1.27 1.24 1.15 1.03 1.01 1.04 1.08 1.11 1.16 1.21 1.23 1.24 1.19 1.18 1.20 1.20 1.20 1.20 1.24 1.27 1.34 1.38 1.39 1.43 1.47 1.48 1.48 1.50 1.56 1.59 1.59 1.58 1.61 1.65
1.63 1.66 1.60 1.57 1.56 1.50 1.41 1.34 1.29 1.29 1.29 1.26 1.14 1.06 1.03 1.06 1.11 1.14 1.17 1.18 1.20 1.20 1.19 1.16 1.16 1.17 1.18 1.19 1.24 1.30 1.32 1.38 1.40 1.43 1.44 1.46 1.52 1.57 1.63 1.61 1.59 1.62 1.62
1.53 1.63 1.63 1.63 1.60 1.55 1.51 1.43 1.38 1.32 1.29 1.28 1.23 1.13 1.06 1.07 1.10 1.11 1.13 1.15 1.19 1.23 1.19 1.15 1.14 1.15 1.16 1.20 1.26 1.28 1.30 1.35 1.40 1.45 1.46 1.49 1.50 1.54 1.58 1.59 1.59 1.54 1.57
1.59 1.61 1.62 1.60 1.60 1.58 1.55 1.49 1.43 1.37 1.33 1.29 1.30 1.25 1.17 1.10 1.08 1.08 1.10 1.12 1.16 1.16 1.15 1.13 1.15 1.13 1.13 1.20 1.26 1.28 1.30 1.33 1.36 1.40 1.44 1.46 1.48 1.54 1.55 1.58 1.54 1.54 1.51
1.51 1.51 1.48 1.54 1.57 1.59 1.58 1.53 1.50 1.40 1.34 1.32 1.31 1.29 1.25 1.17 1.11 1.08 1.07 1.08 1.09 1.09 1.09 1.13 1.15 1.15 1.16 1.19 1.22 1.24 1.28 1.30 1.31 1.33 1.35 1.38 1.46 1.55 1.58 1.57 1.52 1.51 1.48
1.18 1.26 1.33 1.41 1.48 1.53 1.59 1.57 1.56 1.49 1.40 1.35 1.36 1.36 1.31 1.24 1.19 1.12 1.10 1.07 1.09 1.09 1.12 1.15 1.16 1.13 1.13 1.16 1.19 1.24 1.27 1.25 1.25 1.28 1.30 1.33 1.47 1.57 1.60 1.54 1.49 1.50 1.47
1.04 1.09 1.17 1.28 1.35 1.40 1.47 1.55 1.59 1.58 1.52 1.44 1.40 1.39 1.37 1.34 1.30 1.23 1.17 1.14 1.12 1.12 1.13 1.15 1.15 1.13 1.12 1.15 1.16 1.21 1.22 1.20 1.20 1.23 1.26 1.36 1.46 1.54 1.62 1.53 1.49 1.46 1.45
0.97 0.98 1.03 1.06 1.16 1.23 1.30 1.41 1.54 1.60 1.59 1.56 1.52 1.49 1.42 1.42 1.38 1.31 1.28 1.23 1.19 1.15 1.14 1.12 1.11 1.13 1.14 1.16 1.19 1.19 1.18 1.18 1.18 1.21 1.23 1.35 1.41 1.50 1.52 1.56 1.48 1.45 1.43
0.89 0.90 0.90 0.86 0.88 0.95 1.09 1.21 1.39 1.55 1.60 1.60 1.63 1.59 1.59 1.50 1.48 1.39 1.33 1.29 1.25 1.21 1.17 1.11 1.09 1.11 1.13 1.17 1.18 1.17 1.15 1.16 1.18 1.22 1.26 1.29 1.39 1.47 1.48 1.53 1.48 1.43 1.39
0.63 0.65 0.64 0.66 0.71 0.79 0.89 0.94 1.07 1.28 1.48 1.60 1.64 1.66 1.62 1.65 1.59 1.50 1.44 1.36 1.30 1.26 1.21 1.16 1.13 1.12 1.14 1.17 1.16 1.14 1.14 1.16 1.19 1.24 1.29 1.32 1.38 1.46 1.45 1.49 1.50 1.41 1.38
0.51 0.51 0.50 0.49 0.50 0.49 0.54 0.67 0.81 0.91 1.12 1.37 1.49 1.57 1.65 1.65 1.65 1.73 1.60 1.46 1.39 1.34 1.28 1.20 1.15 1.14 1.16 1.17 1.15 1.13 1.14 1.16 1.20 1.26 1.30 1.32 1.36 1.42 1.47 1.49 1.48 1.39 1.35
0.43 0.45 0.45 0.45 0.45 0.45 0.45 0.48 0.48 0.52 0.66 0.81 1.18 1.40 1.51 1.59 1.63 1.65 1.65 1.71 1.53 1.42 1.36 1.28 1.21 1.18 1.17 1.16 1.16 1.14 1.12 1.14 1.17 1.24 1.27 1.29 1.33 1.38 1.44 1.51 1.42 1.37 1.36
0.41 0.41 0.42 0.43 0.45 0.45 0.44 0.44 0.44 0.45 0.46 0.49 0.61 0.78 1.14 1.48 1.58 1.57 1.57 1.65 1.64 1.55 1.46 1.38 1.29 1.21 1.16 1.14 1.12 1.13 1.11 1.12 1.14 1.23 1.25 1.25 1.34 1.43 1.47 1.48 1.38 1.35 1.34
0.34 0.36 0.37 0.38 0.38 0.38 0.38 0.37 0.38 0.39 0.41 0.42 0.46 0.51 0.62 0.91 1.38 1.54 1.55 1.54 1.58 1.64 1.53 1.47 1.36 1.25 1.17 1.16 1.14 1.11 1.13 1.11 1.11 1.19 1.26 1.25 1.36 1.44 1.44 1.46 1.41 1.31 1.29
0.34 0.34 0.35 0.35 0.35 0.36 0.35 0.35 0.35 0.35 0.37 0.39 0.39 0.42 0.44 0.48 0.80 1.16 1.45 1.58 1.57 1.60 1.61 1.54 1.46 1.33 1.21 1.15 1.14 1.12 1.10 1.10 1.09 1.13 1.24 1.27 1.31 1.40 1.44 1.40 1.43 1.36 1.32
0.32 0.32 0.34 0.35 0.37 0.37 0.36 0.36 0.36 0.37 0.37 0.38 0.38 0.39 0.41 0.45 0.44 0.56 0.94 1.31 1.53 1.62 1.64 1.65 1.57 1.41 1.30 1.23 1.13 1.12 1.10 1.09 1.09 1.09 1.18 1.29 1.32 1.38 1.43 1.36 1.43 1.43 1.36
0.33 0.34 0.34 0.36 0.38 0.38 0.38 0.38 0.38 0.38 0.39 0.38 0.39 0.41 0.41 0.43 0.44 0.43 0.47 0.82 1.15 1.48 1.63 1.64 1.66 1.60 1.39 1.33 1.19 1.14 1.11 1.10 1.08 1.06 1.13 1.25 1.34 1.36 1.40 1.33 1.31 1.41 1.41
0.35 0.34 0.36 0.38 0.38 0.39 0.39 0.40 0.39 0.39 0.40 0.39 0.40 0.40 0.42 0.45 0.47 0.45 0.44 0.47 0.80 1.09 1.39 1.56 1.59 1.57 1.48 1.35 1.23 1.14 1.10 1.10 1.09 1.06 1.09 1.18 1.30 1.32 1.32 1.31 1.26 1.21 1.23
0.36 0.36 0.36 0.39 0.40 0.41 0.42 0.42 0.42 0.41 0.40 0.40 0.40 0.41 0.43 0.45 0.47 0.49 0.49 0.47 0.52 0.65 1.04 1.32 1.58 1.53 1.46 1.39 1.30 1.23 1.12 1.07 1.06 1.08 1.05 1.10 1.25 1.29 1.27 1.26 1.22 1.18 1.18
0.39 0.39 0.39 0.40 0.42 0.43 0.43 0.43 0.42 0.41 0.40 0.41 0.42 0.43 0.45 0.45 0.47 0.48 0.49 0.48 0.46 0.45 0.54 0.90 1.25 1.53 1.54 1.50 1.33 1.28 1.20 1.12 1.12 1.08 1.06 1.09 1.17 1.24 1.27 1.22 1.22 1.20 1.16
0.39 0.39 0.40 0.41 0.44 0.43 0.41 0.39 0.37 0.36 0.38 0.40 0.43 0.45 0.46 0.47 0.48 0.49 0.51 0.51 0.50 0.47 0.49 0.54 0.89 1.25 1.50 1.58 1.47 1.33 1.27 1.18 1.10 1.10 1.12 1.13 1.14 1.19 1.26 1.25 1.22 1.16 1.16
0.40 0.41 0.43 0.44 0.44 0.44 0.42 0.41 0.41 0.40 0.42 0.43 0.45 0.46 0.48 0.49 0.49 0.50 0.51 0.51 0.51 0.51 0.52 0.54 0.54 0.77 1.14 1.59 1.45 1.34 1.12 1.10 1.09 1.08 1.10 1.08 1.12 1.18 1.17 1.23 1.19 1.15 1.16
0.41 0.44 0.45 0.45 0.44 0.43 0.43 0.42 0.42 0.43 0.43 0.42 0.43 0.45 0.49 0.52 0.53 0.54 0.54 0.54 0.54 0.54 0.50 0.50 0.56 0.57 0.70 1.08 1.39 1.31 1.17 0.99 0.90 1.04 1.02 1.08 1.07 1.12 1.16 1.18 1.18 1.19 1.22
0.46 0.48 0.48 0.45 0.44 0.44 0.45 0.42 0.40 0.39 0.37 0.41 0.43 0.46 0.50 0.54 0.55 0.57 0.57 0.57 0.56 0.57 0.54 0.52 0.53 0.54 0.65 0.75 1.11 1.40 1.46 1.35 0.95 0.81 1.00 1.02 1.06 1.06 1.07 1.13 1.12 1.13 1.18
0.48 0.48 0.47 0.46 0.45 0.46 0.45 0.44 0.42 0.41 0.42 0.44 0.45 0.46 0.49 0.53 0.56 0.60 0.62 0.60 0.59 0.61 0.61 0.57 0.53 0.53 0.64 0.75 0.90 1.07 1.32 1.33 1.26 0.97 0.81 0.89 1.03 1.02 1.05 1.12 1.13 1.14 1.18
0.49 0.48 0.47 0.47 0.46 0.46 0.46 0.45 0.44 0.43 0.43 0.43 0.45 0.46 0.50 0.54 0.57 0.60 0.63 0.64 0.63 0.60 0.61 0.62 0.60 0.58 0.58 0.84 0.82 0.95 1.06 1.10 1.17 1.09 0.95 0.94 0.89 0.95 1.04 1.07 1.10 1.15 1.16

GFSSE_prec_pwat_150.txt.gz
Precipitable_Water
1.56 1.60 1.55 1.55 1.50 1.43 1.37 1.34 1.33 1.33 1.32 1.26 1.15 1.11 1.12 1.12 1.11 1.15 1.18 1.23 1.24 1.22 1.26 1.27 1.26 1.26 1.30 1.31 1.31 1.32 1.33 1.35 1.40 1.43 1.49 1.48 1.50 1.56 1.59 1.60 1.61 1.70 1.64
1.71 1.66 1.62 1.61 1.58 1.55 1.47 1.38 1.35 1.36 1.35 1.32 1.26 1.18 1.13 1.14 1.12 1.16 1.16 1.18 1.18 1.18 1.21 1.22 1.22 1.19 1.21 1.24 1.27 1.31 1.32 1.34 1.38 1.39 1.42 1.43 1.49 1.55 1.60 1.60 1.64 1.72 1.64
1.66 1.70 1.69 1.69 1.67 1.61 1.57 1.50 1.43 1.39 1.39 1.40 1.36 1.29 1.20 1.16 1.15 1.16 1.14 1.16 1.16 1.18 1.19 1.17 1.18 1.18 1.17 1.18 1.25 1.29 1.30 1.33 1.35 1.38 1.38 1.52 1.51 1.51 1.59 1.58 1.67 1.60 1.64
1.51 1.59 1.63 1.64 1.61 1.57 1.52 1.49 1.45 1.38 1.35 1.40 1.41 1.38 1.32 1.24 1.23 1.20 1.16 1.14 1.13 1.16 1.18 1.15 1.17 1.17 1.17 1.17 1.23 1.27 1.30 1.32 1.35 1.36 1.40 1.44 1.46 1.47 1.57 1.57 1.60 1.59 1.63
1.47 1.52 1.44 1.49 1.51 1.54 1.56 1.54 1.52 1.46 1.38 1.34 1.40 1.43 1.41 1.34 1.28 1.22 1.18 1.17 1.15 1.14 1.11 1.12 1.16 1.15 1.14 1.20 1.23 1.23 1.27 1.30 1.31 1.32 1.42 1.42 1.45 1.43 1.54 1.59 1.60 1.55 1.54
1.30 1.31 1.37 1.37 1.39 1.42 1.49 1.55 1.58 1.56 1.48 1.42 1.40 1.40 1.40 1.36 1.29 1.25 1.20 1.19 1.16 1.11 1.07 1.11 1.14 1.14 1.13 1.16 1.20 1.22 1.26 1.28 1.24 1.30 1.32 1.37 1.38 1.54 1.56 1.59 1.58 1.57 1.50
1.05 1.09 1.14 1.23 1.27 1.25 1.25 1.32 1.41 1.51 1.57 1.56 1.48 1.46 1.43 1.42 1.38 1.31 1.23 1.19 1.16 1.12 1.13 1.16 1.18 1.15 1.12 1.14 1.18 1.19 1.23 1.23 1.20 1.26 1.28 1.31 1.36 1.50 1.57 1.56 1.53 1.54 1.47
0.95 0.98 1.01 1.02 1.08 1.05 1.14 1.25 1.33 1.38 1.50 1.61 1.61 1.55 1.52 1.50 1.53 1.44 1.37 1.29 1.24 1.18 1.17 1.17 1.19 1.19 1.16 1.14 1.16 1.20 1.23 1.22 1.17 1.23 1.24 1.30 1.43 1.39 1.53 1.54 1.53 1.49 1.46
0.89 0.89 0.90 0.91 0.88 0.90 0.88 1.03 1.15 1.24 1.32 1.47 1.61 1.71 1.60 1.56 1.56 1.58 1.52 1.44 1.34 1.29 1.24 1.21 1.18 1.16 1.14 1.14 1.17 1.19 1.20 1.18 1.18 1.25 1.25 1.29 1.36 1.35 1.50 1.49 1.51 1.48 1.44
0.65 0.67 0.68 0.67 0.67 0.69 0.71 0.74 0.81 0.94 1.13 1.27 1.38 1.51 1.66 1.71 1.61 1.57 1.59 1.63 1.51 1.39 1.32 1.28 1.22 1.18 1.16 1.14 1.15 1.16 1.16 1.16 1.14 1.24 1.28 1.31 1.32 1.33 1.43 1.47 1.50 1.46 1.43
0.56 0.54 0.53 0.52 0.53 0.51 0.48 0.50 0.52 0.59 0.64 0.84 1.10 1.27 1.44 1.59 1.67 1.67 1.65 1.63 1.70 1.62 1.44 1.35 1.30 1.22 1.18 1.16 1.14 1.14 1.13 1.13 1.16 1.21 1.27 1.32 1.29 1.35 1.39 1.44 1.44 1.46 1.40
0.49 0.49 0.48 0.49 0.48 0.47 0.45 0.48 0.47 0.48 0.50 0.52 0.55 0.66 1.00 1.25 1.48 1.57 1.60 1.64 1.62 1.64 1.63 1.59 1.43 1.36 1.26 1.19 1.15 1.13 1.10 1.09 1.15 1.19 1.25 1.29 1.26 1.32 1.34 1.40 1.42 1.43 1.36
0.44 0.44 0.44 0.44 0.46 0.46 0.46 0.46 0.45 0.44 0.45 0.47 0.49 0.52 0.52 0.59 0.92 1.36 1.55 1.57 1.62 1.62 1.62 1.67 1.56 1.43 1.30 1.23 1.20 1.16 1.10 1.11 1.14 1.15 1.22 1.25 1.24 1.29 1.35 1.41 1.45 1.42 1.33
0.35 0.37 0.39 0.40 0.41 0.41 0.41 0.39 0.39 0.39 0.40 0.42 0.43 0.45 0.46 0.44 0.45 0.64 1.04 1.44 1.57 1.59 1.57 1.63 1.64 1.62 1.42 1.34 1.27 1.21 1.16 1.12 1.14 1.15 1.21 1.21 1.21 1.28 1.36 1.46 1.44 1.40 1.32
0.35 0.37 0.38 0.39 0.39 0.39 0.39 0.40 0.40 0.39 0.39 0.41 0.42 0.44 0.46 0.43 0.42 0.48 0.49 0.78 1.23 1.54 1.53 1.51 1.55 1.57 1.52 1.45 1.38 1.27 1.21 1.14 1.13 1.17 1.18 1.20 1.18 1.26 1.35 1.48 1.44 1.39 1.32
0.34 0.35 0.38 0.38 0.39 0.40 0.40 0.41 0.41 0.41 0.41 0.42 0.43 0.44 0.47 0.47 0.44 0.45 0.44 0.45 0.65 1.07 1.48 1.57 1.49 1.50 1.51 1.55 1.50 1.39 1.26 1.22 1.16 1.16 1.15 1.19 1.18 1.22 1.28 1.40 1.46 1.39 1.34
0.35 0.37 0.38 0.38 0.40 0.40 0.40 0.42 0.42 0.42 0.44 0.43 0.43 0.45 0.45 0.46 0.47 0.48 0.47 0.46 0.46 0.56 0.92 1.34 1.54 1.53 1.48 1.53 1.53 1.52 1.38 1.28 1.20 1.15 1.14 1.14 1.22 1.20 1.24 1.32 1.44 1.41 1.38
0.37 0.38 0.40 0.41 0.41 0.41 0.42 0.43 0.44 0.44 0.45 0.44 0.44 0.44 0.45 0.47 0.49 0.49 0.48 0.48 0.51 0.52 0.61 0.82 1.17 1.40 1.45 1.43 1.45 1.49 1.51 1.39 1.28 1.21 1.15 1.13 1.19 1.24 1.23 1.31 1.36 1.33 1.33
0.39 0.40 0.40 0.41 0.42 0.42 0.43 0.44 0.45 0.46 0.45 0.45 0.45 0.45 0.46 0.48 0.49 0.50 0.48 0.49 0.51 0.50 0.51 0.58 0.72 1.05 1.33 1.41 1.39 1.45 1.51 1.47 1.35 1.27 1.19 1.13 1.17 1.23 1.28 1.27 1.30 1.30 1.26
0.41 0.42 0.42 0.43 0.43 0.43 0.43 0.44 0.45 0.45 0.44 0.44 0.44 0.45 0.47 0.47 0.48 0.49 0.50 0.50 0.53 0.52 0.49 0.49 0.49 0.69 0.99 1.33 1.41 1.41 1.47 1.52 1.49 1.33 1.22 1.20 1.14 1.19 1.26 1.31 1.29 1.26 1.22
0.43 0.43 0.43 0.42 0.43 0.44 0.44 0.43 0.41 0.38 0.40 0.43 0.44 0.45 0.46 0.48 0.49 0.50 0.50 0.50 0.53 0.53 0.53 0.54 0.54 0.56 0.63 1.02 1.26 1.28 1.49 1.54 1.54 1.48 1.35 1.23 1.16 1.16 1.24 1.30 1.31 1.28 1.23
0.44 0.45 0.44 0.44 0.46 0.47 0.46 0.44 0.42 0.42 0.43 0.43 0.44 0.46 0.48 0.49 0.51 0.52 0.51 0.51 0.53 0.51 0.51 0.53 0.56 0.56 0.55 0.69 0.89 1.07 1.10 1.36 1.50 1.49 1.43 1.32 1.24 1.18 1.19 1.28 1.31 1.25 1.25
0.45 0.46 0.46 0.48 0.49 0.49 0.47 0.45 0.44 0.44 0.43 0.41 0.42 0.43 0.46 0.49 0.51 0.53 0.53 0.54 0.54 0.54 0.50 0.53 0.57 0.55 0.54 0.62 0.77 0.88 0.98 0.86 1.04 1.49 1.45 1.37 1.31 1.23 1.20 1.23 1.30 1.28 1.21
0.48 0.50 0.52 0.52 0.50 0.48 0.47 0.44 0.42 0.40 0.38 0.41 0.42 0.45 0.47 0.51 0.52 0.54 0.54 0.54 0.54 0.56 0.56 0.57 0.58 0.58 0.59 0.53 0.67 0.81 1.00 1.07 0.91 1.01 1.41 1.38 1.34 1.27 1.20 1.21 1.27 1.29 1.26
0.53 0.53 0.53 0.51 0.48 0.48 0.47 0.46 0.44 0.41 0.42 0.43 0.44 0.46 0.48 0.52 0.56 0.58 0.58 0.57 0.56 0.58 0.59 0.58 0.59 0.61 0.62 0.60 0.57 0.65 0.75 0.97 1.06 0.91 0.92 1.16 1.29 1.28 1.25 1.22 1.21 1.27 1.27
0.53 0.49 0.47 0.47 0.46 0.48 0.48 0.46 0.45 0.42 0.43 0.42 0.44 0.45 0.48 0.52 0.55 0.58 0.60 0.62 0.63 0.63 0.63 0.65 0.65 0.64 0.65 0.66 0.63 0.64 0.74 0.77 0.79 0.92 0.92 1.06 1.21 1.21 1.28 1.26 1.22 1.23 1.23